Wetterdaten: Dienstag, 11.02.2014
Datum Zeit Temp. Aussen +5cm Feuchte Auss Luftdruck Regen Sonnenschein Regendauer UV Solar Windben
11.02.2014 00:00 3,5 C 1,7 C 94 % 997,2 hPa 0,0 l/m 0 min 0 min 0,0 UV-I 0 W/m 0,0 km/h (0 Bft)
11.02.2014 00:02 3,4 C 1,7 C 94 % 997,3 hPa 0,0 l/m 0 min 0 min 0,0 UV-I 0 W/m 2,6 km/h (1 Bft)
11.02.2014 00:04 3,4 C 1,7 C 94 % 997,2 hPa 0,0 l/m 0 min 0 min 0,0 UV-I 0 W/m 0,0 km/h (0 Bft)
11.02.2014 00:06 3,4 C 1,7 C 94 % 997,3 hPa 0,0 l/m 0 min 0 min 0,0 UV-I 0 W/m 0,0 km/h (0 Bft)
11.02.2014 00:08 3,4 C 1,7 C 94 % 997,4 hPa 0,0 l/m 0 min 0 min 0,0 UV-I 0 W/m 0,0 km/h (0 Bft)
11.02.2014 00:10 3,4 C 2,2 C 95 % 997,4 hPa 0,0 l/m 0 min 0 min 0,0 UV-I 0 W/m 0,0 km/h (0 Bft)
11.02.2014 00:12 3,4 C 2,2 C 95 % 997,4 hPa 0,0 l/m 0 min 0 min 0,0 UV-I 0 W/m 2,6 km/h (1 Bft)
11.02.2014 00:14 3,4 C 2,2 C 95 % 997,5 hPa 0,0 l/m 0 min 0 min 0,0 UV-I 0 W/m 10,3 km/h (2 Bft)
11.02.2014 00:16 3,4 C 2,2 C 95 % 997,6 hPa 0,0 l/m 0 min 0 min 0,0 UV-I 0 W/m 5,1 km/h (1 Bft)
11.02.2014 00:18 3,4 C 2,2 C 95 % 997,5 hPa 0,0 l/m 0 min 0 min 0,0 UV-I 0 W/m 0,0 km/h (0 Bft)
11.02.2014 00:20 3,4 C 2,2 C 95 % 997,5 hPa 0,0 l/m 0 min 0 min 0,0 UV-I 0 W/m 2,6 km/h (1 Bft)
11.02.2014 00:22 3,4 C 2,2 C 95 % 997,5 hPa 0,0 l/m 0 min 0 min 0,0 UV-I 0 W/m 7,7 km/h (2 Bft)
11.02.2014 00:24 3,4 C 2,2 C 95 % 997,6 hPa 0,0 l/m 0 min 0 min 0,0 UV-I 0 W/m 2,6 km/h (1 Bft)
11.02.2014 00:26 3,4 C 2,2 C 95 % 997,6 hPa 0,0 l/m 0 min 0 min 0,0 UV-I 0 W/m 7,7 km/h (2 Bft)
11.02.2014 00:28 3,4 C 1,7 C 95 % 997,6 hPa 0,0 l/m 0 min 0 min 0,0 UV-I 0 W/m 0,0 km/h (0 Bft)
11.02.2014 00:30 3,4 C 1,7 C 95 % 997,7 hPa 0,0 l/m 0 min 0 min 0,0 UV-I 0 W/m 2,6 km/h (1 Bft)
11.02.2014 00:32 3,4 C 1,7 C 95 % 997,7 hPa 0,0 l/m 0 min 0 min 0,0 UV-I 0 W/m 7,7 km/h (2 Bft)
11.02.2014 00:34 3,4 C 1,7 C 95 % 997,7 hPa 0,0 l/m 0 min 0 min 0,0 UV-I 0 W/m 0,0 km/h (0 Bft)
11.02.2014 00:36 3,4 C 1,7 C 95 % 997,6 hPa 0,0 l/m 0 min 0 min 0,0 UV-I 0 W/m 5,1 km/h (1 Bft)
11.02.2014 00:38 3,4 C 1,7 C 95 % 997,7 hPa 0,0 l/m 0 min 0 min 0,0 UV-I 0 W/m 7,7 km/h (2 Bft)
11.02.2014 00:40 3,4 C 2,2 C 95 % 997,7 hPa 0,0 l/m 0 min 0 min 0,0 UV-I 0 W/m 2,6 km/h (1 Bft)
11.02.2014 00:42 3,4 C 2,2 C 95 % 997,7 hPa 0,0 l/m 0 min 2 min 0,0 UV-I 0 W/m 10,3 km/h (2 Bft)
11.02.2014 00:44 3,4 C 2,2 C 95 % 997,7 hPa 0,0 l/m 0 min 0 min 0,0 UV-I 0 W/m 12,9 km/h (3 Bft)
11.02.2014 00:46 3,4 C 2,2 C 95 % 997,7 hPa 0,0 l/m 0 min 0 min 0,0 UV-I 0 W/m 2,6 km/h (1 Bft)
11.02.2014 00:48 3,4 C 2,2 C 95 % 997,7 hPa 0,0 l/m 0 min 0 min 0,0 UV-I 0 W/m 5,1 km/h (1 Bft)
11.02.2014 00:50 3,4 C 2,2 C 95 % 997,7 hPa 0,0 l/m 0 min 0 min 0,0 UV-I 0 W/m 10,3 km/h (2 Bft)
11.02.2014 00:52 3,4 C 2,2 C 95 % 997,8 hPa 0,0 l/m 0 min 0 min 0,0 UV-I 0 W/m 0,0 km/h (0 Bft)
11.02.2014 00:54 3,4 C 2,2 C 95 % 997,8 hPa 0,0 l/m 0 min 0 min 0,0 UV-I 0 W/m 0,0 km/h (0 Bft)
11.02.2014 00:56 3,4 C 1,7 C 95 % 997,8 hPa 0,0 l/m 0 min 0 min 0,0 UV-I 0 W/m 0,0 km/h (0 Bft)
11.02.2014 00:58 3,4 C 2,2 C 95 % 997,7 hPa 0,0 l/m 0 min 0 min 0,0 UV-I 0 W/m 5,1 km/h (1 Bft)
11.02.2014 01:00 3,4 C 2,2 C 95 % 997,7 hPa 0,0 l/m 0 min 0 min 0,0 UV-I 0 W/m 5,1 km/h (1 Bft)
11.02.2014 01:02 3,4 C 2,2 C 95 % 997,8 hPa 0,0 l/m 0 min 0 min 0,0 UV-I 0 W/m 5,1 km/h (1 Bft)
11.02.2014 01:04 3,4 C 2,2 C 95 % 997,8 hPa 0,0 l/m 0 min 0 min 0,0 UV-I 0 W/m 5,1 km/h (1 Bft)
11.02.2014 01:06 3,4 C 2,2 C 95 % 997,8 hPa 0,0 l/m 0 min 0 min 0,0 UV-I 0 W/m 0,0 km/h (0 Bft)
11.02.2014 01:08 3,4 C 2,2 C 95 % 997,8 hPa 0,0 l/m 0 min 0 min 0,0 UV-I 0 W/m 0,0 km/h (0 Bft)
11.02.2014 01:10 3,4 C 2,2 C 95 % 997,9 hPa 0,0 l/m 0 min 0 min 0,0 UV-I 0 W/m 10,3 km/h (2 Bft)
11.02.2014 01:12 3,4 C 2,2 C 95 % 997,8 hPa 0,0 l/m 0 min 0 min 0,0 UV-I 0 W/m 7,7 km/h (2 Bft)
11.02.2014 01:14 3,4 C 2,2 C 95 % 997,8 hPa 0,0 l/m 0 min 0 min 0,0 UV-I 0 W/m 5,1 km/h (1 Bft)
11.02.2014 01:16 3,4 C 2,2 C 95 % 997,8 hPa 0,0 l/m 0 min 0 min 0,0 UV-I 0 W/m 0,0 km/h (0 Bft)
11.02.2014 01:18 3,5 C 2,2 C 95 % 997,9 hPa 0,0 l/m 0 min 0 min 0,0 UV-I 0 W/m 5,1 km/h (1 Bft)
11.02.2014 01:20 3,5 C 2,2 C 96 % 998,0 hPa 0,0 l/m 0 min 0 min 0,0 UV-I 0 W/m 7,7 km/h (2 Bft)
11.02.2014 01:22 3,5 C 2,2 C 96 % 998,0 hPa 0,0 l/m 0 min 0 min 0,0 UV-I 0 W/m 5,1 km/h (1 Bft)
11.02.2014 01:24 3,5 C 2,2 C 96 % 998,0 hPa 0,0 l/m 0 min 0 min 0,0 UV-I 0 W/m 10,3 km/h (2 Bft)
11.02.2014 01:26 3,5 C 2,2 C 96 % 997,9 hPa 0,0 l/m 0 min 0 min 0,0 UV-I 0 W/m 7,7 km/h (2 Bft)
11.02.2014 01:28 3,5 C 2,2 C 96 % 997,9 hPa 0,0 l/m 0 min 0 min 0,0 UV-I 0 W/m 5,1 km/h (1 Bft)
11.02.2014 01:30 3,5 C 2,2 C 96 % 997,9 hPa 0,0 l/m 0 min 0 min 0,0 UV-I 0 W/m 7,7 km/h (2 Bft)
11.02.2014 01:32 3,5 C 2,2 C 96 % 997,9 hPa 0,0 l/m 0 min 0 min 0,0 UV-I 0 W/m 7,7 km/h (2 Bft)
11.02.2014 01:34 3,5 C 2,2 C 96 % 998,0 hPa 0,0 l/m 0 min 0 min 0,0 UV-I 0 W/m 7,7 km/h (2 Bft)
11.02.2014 01:36 3,5 C 2,2 C 96 % 998,1 hPa 0,0 l/m 0 min 0 min 0,0 UV-I 0 W/m 7,7 km/h (2 Bft)
11.02.2014 01:38 3,6 C 2,2 C 96 % 998,1 hPa 0,0 l/m 0 min 0 min 0,0 UV-I 0 W/m 7,7 km/h (2 Bft)
11.02.2014 01:40 3,6 C 2,2 C 96 % 998,1 hPa 0,0 l/m 0 min 0 min 0,0 UV-I 0 W/m 7,7 km/h (2 Bft)
11.02.2014 01:42 3,6 C 2,2 C 96 % 998,1 hPa 0,0 l/m 0 min 0 min 0,0 UV-I 0 W/m 5,1 km/h (1 Bft)
11.02.2014 01:44 3,6 C 2,2 C 96 % 998,1 hPa 0,0 l/m 0 min 0 min 0,0 UV-I 0 W/m 0,0 km/h (0 Bft)
11.02.2014 01:46 3,6 C 2,2 C 96 % 998,2 hPa 0,0 l/m 0 min 0 min 0,0 UV-I 0 W/m 2,6 km/h (1 Bft)
11.02.2014 01:48 3,6 C 2,2 C 96 % 998,2 hPa 0,0 l/m 0 min 0 min 0,0 UV-I 0 W/m 0,0 km/h (0 Bft)
11.02.2014 01:50 3,6 C 2,2 C 96 % 998,2 hPa 0,0 l/m 0 min 0 min 0,0 UV-I 0 W/m 2,6 km/h (1 Bft)
11.02.2014 01:52 3,6 C 2,2 C 96 % 998,2 hPa 0,0 l/m 0 min 0 min 0,0 UV-I 0 W/m 2,6 km/h (1 Bft)
11.02.2014 01:54 3,6 C 2,2 C 96 % 998,2 hPa 0,0 l/m 0 min 0 min 0,0 UV-I 0 W/m 5,1 km/h (1 Bft)
11.02.2014 01:56 3,6 C 2,2 C 96 % 998,2 hPa 0,0 l/m 0 min 0 min 0,0 UV-I 0 W/m 2,6 km/h (1 Bft)
11.02.2014 01:58 3,6 C 2,2 C 96 % 998,2 hPa 0,0 l/m 0 min 0 min 0,0 UV-I 0 W/m 5,1 km/h (1 Bft)
11.02.2014 02:00 3,7 C 2,2 C 96 % 998,2 hPa 0,0 l/m 0 min 0 min 0,0 UV-I 0 W/m 2,6 km/h (1 Bft)
11.02.2014 02:02 3,7 C 2,2 C 96 % 998,2 hPa 0,0 l/m 0 min 0 min 0,0 UV-I 0 W/m 7,7 km/h (2 Bft)
11.02.2014 02:04 3,7 C 2,2 C 96 % 998,3 hPa 0,0 l/m 0 min 0 min 0,0 UV-I 0 W/m 12,9 km/h (3 Bft)
11.02.2014 02:06 3,7 C 2,8 C 96 % 998,4 hPa 0,0 l/m 0 min 0 min 0,0 UV-I 0 W/m 12,9 km/h (3 Bft)
11.02.2014 02:08 3,7 C 2,8 C 96 % 998,3 hPa 0,0 l/m 0 min 0 min 0,0 UV-I 0 W/m 5,1 km/h (1 Bft)
11.02.2014 02:10 3,8 C 2,2 C 96 % 998,4 hPa 0,0 l/m 0 min 0 min 0,0 UV-I 0 W/m 7,7 km/h (2 Bft)
11.02.2014 02:12 3,8 C 2,2 C 96 % 998,3 hPa 0,0 l/m 0 min 0 min 0,0 UV-I 0 W/m 15,4 km/h (3 Bft)
11.02.2014 02:14 3,8 C 2,2 C 96 % 998,4 hPa 0,0 l/m 0 min 0 min 0,0 UV-I 0 W/m 7,7 km/h (2 Bft)
11.02.2014 02:16 3,8 C 2,2 C 96 % 998,4 hPa 0,0 l/m 0 min 0 min 0,0 UV-I 0 W/m 5,1 km/h (1 Bft)
11.02.2014 02:18 3,8 C 2,2 C 96 % 998,4 hPa 0,0 l/m 0 min 0 min 0,0 UV-I 0 W/m 0,0 km/h (0 Bft)
11.02.2014 02:20 3,8 C 2,2 C 96 % 998,4 hPa 0,0 l/m 0 min 0 min 0,0 UV-I 0 W/m 2,6 km/h (1 Bft)
11.02.2014 02:22 3,8 C 2,2 C 96 % 998,5 hPa 0,0 l/m 0 min 0 min 0,0 UV-I 0 W/m 7,7 km/h (2 Bft)
11.02.2014 02:24 3,8 C 2,8 C 96 % 998,5 hPa 0,0 l/m 0 min 0 min 0,0 UV-I 0 W/m 7,7 km/h (2 Bft)
11.02.2014 02:26 3,8 C 2,8 C 96 % 998,5 hPa 0,0 l/m 0 min 0 min 0,0 UV-I 0 W/m 10,3 km/h (2 Bft)
11.02.2014 02:28 3,8 C 2,8 C 96 % 998,5 hPa 0,0 l/m 0 min 0 min 0,0 UV-I 0 W/m 12,9 km/h (3 Bft)
11.02.2014 02:30 3,9 C 2,8 C 96 % 998,5 hPa 0,0 l/m 0 min 0 min 0,0 UV-I 0 W/m 0,0 km/h (0 Bft)
11.02.2014 02:32 3,9 C 2,8 C 96 % 998,5 hPa 0,0 l/m 0 min 0 min 0,0 UV-I 0 W/m 10,3 km/h (2 Bft)
11.02.2014 02:34 3,9 C 2,8 C 96 % 998,5 hPa 0,0 l/m 0 min 0 min 0,0 UV-I 0 W/m 15,4 km/h (3 Bft)
11.02.2014 02:36 3,9 C 2,8 C 96 % 998,6 hPa 0,0 l/m 0 min 0 min 0,0 UV-I 0 W/m 7,7 km/h (2 Bft)
11.02.2014 02:38 4,0 C 2,8 C 96 % 998,5 hPa 0,0 l/m 0 min 0 min 0,0 UV-I 0 W/m 0,0 km/h (0 Bft)
11.02.2014 02:40 4,0 C 2,8 C 96 % 998,6 hPa 0,0 l/m 0 min 0 min 0,0 UV-I 0 W/m 5,1 km/h (1 Bft)
11.02.2014 02:42 4,1 C 2,8 C 96 % 998,6 hPa 0,0 l/m 0 min 0 min 0,0 UV-I 0 W/m 12,9 km/h (3 Bft)
11.02.2014 02:44 4,1 C 2,8 C 96 % 998,7 hPa 0,0 l/m 0 min 0 min 0,0 UV-I 0 W/m 20,6 km/h (4 Bft)
11.02.2014 02:46 4,2 C 2,8 C 96 % 998,6 hPa 0,0 l/m 0 min 0 min 0,0 UV-I 0 W/m 15,4 km/h (3 Bft)
11.02.2014 02:48 4,2 C 2,8 C 96 % 998,6 hPa 0,0 l/m 0 min 0 min 0,0 UV-I 0 W/m 0,0 km/h (0 Bft)
11.02.2014 02:50 4,2 C 3,3 C 96 % 998,7 hPa 0,0 l/m 0 min 0 min 0,0 UV-I 0 W/m 10,3 km/h (2 Bft)
11.02.2014 02:52 4,2 C 3,3 C 96 % 998,6 hPa 0,0 l/m 0 min 0 min 0,0 UV-I 0 W/m 5,1 km/h (1 Bft)
11.02.2014 02:54 4,2 C 3,3 C 96 % 998,7 hPa 0,0 l/m 0 min 0 min 0,0 UV-I 0 W/m 10,3 km/h (2 Bft)
11.02.2014 02:56 4,3 C 3,3 C 96 % 998,7 hPa 0,0 l/m 0 min 0 min 0,0 UV-I 0 W/m 10,3 km/h (2 Bft)
11.02.2014 02:58 4,3 C 3,3 C 96 % 998,7 hPa 0,0 l/m 0 min 0 min 0,0 UV-I 0 W/m 10,3 km/h (2 Bft)
11.02.2014 03:00 4,4 C 3,3 C 96 % 998,8 hPa 0,0 l/m 0 min 0 min 0,0 UV-I 0 W/m 12,9 km/h (3 Bft)
11.02.2014 03:02 4,4 C 3,3 C 96 % 998,8 hPa 0,0 l/m 0 min 0 min 0,0 UV-I 0 W/m 12,9 km/h (3 Bft)
11.02.2014 03:04 4,4 C 3,3 C 96 % 998,8 hPa 0,0 l/m 0 min 0 min 0,0 UV-I 0 W/m 10,3 km/h (2 Bft)
11.02.2014 03:06 4,4 C 3,3 C 96 % 998,8 hPa 0,0 l/m 0 min 0 min 0,0 UV-I 0 W/m 7,7 km/h (2 Bft)
11.02.2014 03:08 4,5 C 3,3 C 96 % 998,8 hPa 0,0 l/m 0 min 0 min 0,0 UV-I 0 W/m 12,9 km/h (3 Bft)
11.02.2014 03:10 4,6 C 3,3 C 96 % 998,8 hPa 0,0 l/m 0 min 0 min 0,0 UV-I 0 W/m 7,7 km/h (2 Bft)
11.02.2014 03:12 4,6 C 3,3 C 96 % 998,8 hPa 0,0 l/m 0 min 0 min 0,0 UV-I 0 W/m 12,9 km/h (3 Bft)
11.02.2014 03:14 4,6 C 3,3 C 96 % 998,8 hPa 0,0 l/m 0 min 0 min 0,0 UV-I 0 W/m 10,3 km/h (2 Bft)
11.02.2014 03:16 4,6 C 3,3 C 96 % 998,8 hPa 0,0 l/m 0 min 0 min 0,0 UV-I 0 W/m 15,4 km/h (3 Bft)
11.02.2014 03:18 4,6 C 3,3 C 96 % 999,0 hPa 0,0 l/m 0 min 0 min 0,0 UV-I 0 W/m 10,3 km/h (2 Bft)
11.02.2014 03:20 4,7 C 3,3 C 96 % 998,8 hPa 0,0 l/m 0 min 0 min 0,0 UV-I 0 W/m 2,6 km/h (1 Bft)
11.02.2014 03:22 4,7 C 3,3 C 96 % 998,8 hPa 0,0 l/m 0 min 0 min 0,0 UV-I 0 W/m 10,3 km/h (2 Bft)
11.02.2014 03:24 4,7 C 3,3 C 96 % 998,8 hPa 0,0 l/m 0 min 0 min 0,0 UV-I 0 W/m 5,1 km/h (1 Bft)
11.02.2014 03:26 4,6 C 3,3 C 96 % 998,9 hPa 0,0 l/m 0 min 0 min 0,0 UV-I 0 W/m 7,7 km/h (2 Bft)
11.02.2014 03:28 4,7 C 3,3 C 96 % 998,9 hPa 0,0 l/m 0 min 0 min 0,0 UV-I 0 W/m 12,9 km/h (3 Bft)
11.02.2014 03:30 4,7 C 3,3 C 96 % 998,9 hPa 0,0 l/m 0 min 2 min 0,0 UV-I 0 W/m 7,7 km/h (2 Bft)
11.02.2014 03:32 4,7 C 3,3 C 96 % 999,0 hPa 0,0 l/m 0 min 2 min 0,0 UV-I 0 W/m 15,4 km/h (3 Bft)
11.02.2014 03:34 4,7 C 3,3 C 96 % 999,0 hPa 0,0 l/m 0 min 0 min 0,0 UV-I 0 W/m 10,3 km/h (2 Bft)
11.02.2014 03:36 4,7 C 3,3 C 96 % 998,9 hPa 0,0 l/m 0 min 0 min 0,0 UV-I 0 W/m 7,7 km/h (2 Bft)
11.02.2014 03:38 4,7 C 3,3 C 95 % 998,9 hPa 0,0 l/m 0 min 0 min 0,0 UV-I 0 W/m 7,7 km/h (2 Bft)
11.02.2014 03:40 4,7 C 3,3 C 95 % 999,0 hPa 0,0 l/m 0 min 0 min 0,0 UV-I 0 W/m 7,7 km/h (2 Bft)
11.02.2014 03:42 4,7 C 3,3 C 95 % 999,0 hPa 0,0 l/m 0 min 0 min 0,0 UV-I 0 W/m 7,7 km/h (2 Bft)
11.02.2014 03:44 4,7 C 3,3 C 95 % 999,0 hPa 0,0 l/m 0 min 0 min 0,0 UV-I 0 W/m 2,6 km/h (1 Bft)
11.02.2014 03:46 4,7 C 3,3 C 95 % 999,0 hPa 0,0 l/m 0 min 0 min 0,0 UV-I 0 W/m 5,1 km/h (1 Bft)
11.02.2014 03:48 4,7 C 3,3 C 95 % 999,0 hPa 0,0 l/m 0 min 0 min 0,0 UV-I 0 W/m 12,9 km/h (3 Bft)
11.02.2014 03:50 4,7 C 3,3 C 95 % 999,0 hPa 0,0 l/m 0 min 0 min 0,0 UV-I 0 W/m 15,4 km/h (3 Bft)
11.02.2014 03:52 4,8 C 3,3 C 95 % 999,0 hPa 0,0 l/m 0 min 0 min 0,0 UV-I 0 W/m 7,7 km/h (2 Bft)
11.02.2014 03:54 4,8 C 3,3 C 95 % 999,0 hPa 0,0 l/m 0 min 0 min 0,0 UV-I 0 W/m 10,3 km/h (2 Bft)
11.02.2014 03:56 4,8 C 3,3 C 95 % 999,0 hPa 0,0 l/m 0 min 0 min 0,0 UV-I 0 W/m 10,3 km/h (2 Bft)
11.02.2014 03:58 4,8 C 3,3 C 95 % 999,1 hPa 0,0 l/m 0 min 0 min 0,0 UV-I 0 W/m 7,7 km/h (2 Bft)
11.02.2014 04:00 4,8 C 3,3 C 95 % 999,1 hPa 0,0 l/m 0 min 0 min 0,0 UV-I 0 W/m 10,3 km/h (2 Bft)
11.02.2014 04:02 4,8 C 3,3 C 95 % 999,0 hPa 0,0 l/m 0 min 0 min 0,0 UV-I 0 W/m 5,1 km/h (1 Bft)
11.02.2014 04:04 4,9 C 3,3 C 95 % 999,0 hPa 0,0 l/m 0 min 0 min 0,0 UV-I 0 W/m 10,3 km/h (2 Bft)
11.02.2014 04:06 4,9 C 3,3 C 95 % 999,1 hPa 0,0 l/m 0 min 0 min 0,0 UV-I 0 W/m 20,6 km/h (4 Bft)
11.02.2014 04:08 4,9 C 3,3 C 95 % 999,2 hPa 0,0 l/m 0 min 0 min 0,0 UV-I 0 W/m 0,0 km/h (0 Bft)
11.02.2014 04:10 4,9 C 3,3 C 95 % 999,3 hPa 0,0 l/m 0 min 0 min 0,0 UV-I 0 W/m 7,7 km/h (2 Bft)
11.02.2014 04:12 4,9 C 3,3 C 95 % 999,3 hPa 0,0 l/m 0 min 0 min 0,0 UV-I 0 W/m 5,1 km/h (1 Bft)
11.02.2014 04:14 4,9 C 3,3 C 95 % 999,4 hPa 0,0 l/m 0 min 0 min 0,0 UV-I 0 W/m 18,0 km/h (3 Bft)
11.02.2014 04:16 4,9 C 3,3 C 95 % 999,4 hPa 0,0 l/m 0 min 0 min 0,0 UV-I 0 W/m 10,3 km/h (2 Bft)
11.02.2014 04:18 4,9 C 3,3 C 95 % 999,4 hPa 0,0 l/m 0 min 0 min 0,0 UV-I 0 W/m 7,7 km/h (2 Bft)
11.02.2014 04:20 4,9 C 3,3 C 95 % 999,5 hPa 0,0 l/m 0 min 0 min 0,0 UV-I 0 W/m 20,6 km/h (4 Bft)
11.02.2014 04:22 4,9 C 3,3 C 95 % 999,5 hPa 0,0 l/m 0 min 0 min 0,0 UV-I 0 W/m 12,9 km/h (3 Bft)
11.02.2014 04:24 4,9 C 3,3 C 94 % 999,5 hPa 0,0 l/m 0 min 0 min 0,0 UV-I 0 W/m 10,3 km/h (2 Bft)
11.02.2014 04:26 4,9 C 3,3 C 94 % 999,5 hPa 0,0 l/m 0 min 0 min 0,0 UV-I 0 W/m 7,7 km/h (2 Bft)
11.02.2014 04:28 5,0 C 3,3 C 94 % 999,3 hPa 0,0 l/m 0 min 0 min 0,0 UV-I 0 W/m 7,7 km/h (2 Bft)
11.02.2014 04:30 5,0 C 3,3 C 94 % 999,3 hPa 0,0 l/m 0 min 0 min 0,0 UV-I 0 W/m 10,3 km/h (2 Bft)
11.02.2014 04:32 5,0 C 3,3 C 94 % 999,3 hPa 0,0 l/m 0 min 0 min 0,0 UV-I 0 W/m 15,4 km/h (3 Bft)
11.02.2014 04:34 5,0 C 3,3 C 94 % 999,5 hPa 0,0 l/m 0 min 0 min 0,0 UV-I 0 W/m 10,3 km/h (2 Bft)
11.02.2014 04:36 5,0 C 3,3 C 94 % 999,4 hPa 0,0 l/m 0 min 0 min 0,0 UV-I 0 W/m 20,6 km/h (4 Bft)
11.02.2014 04:38 5,0 C 3,3 C 94 % 999,4 hPa 0,0 l/m 0 min 0 min 0,0 UV-I 0 W/m 10,3 km/h (2 Bft)
11.02.2014 04:40 5,0 C 3,3 C 94 % 999,5 hPa 0,0 l/m 0 min 0 min 0,0 UV-I 0 W/m 15,4 km/h (3 Bft)
11.02.2014 04:42 5,0 C 3,3 C 93 % 999,5 hPa 0,0 l/m 0 min 0 min 0,0 UV-I 0 W/m 15,4 km/h (3 Bft)
11.02.2014 04:44 5,0 C 3,3 C 93 % 999,7 hPa 0,0 l/m 0 min 0 min 0,0 UV-I 0 W/m 12,9 km/h (3 Bft)
11.02.2014 04:46 5,0 C 3,3 C 93 % 999,7 hPa 0,0 l/m 0 min 0 min 0,0 UV-I 0 W/m 15,4 km/h (3 Bft)
11.02.2014 04:48 5,1 C 3,3 C 93 % 999,7 hPa 0,0 l/m 0 min 0 min 0,0 UV-I 0 W/m 10,3 km/h (2 Bft)
11.02.2014 04:50 5,1 C 3,3 C 93 % 999,7 hPa 0,0 l/m 0 min 0 min 0,0 UV-I 0 W/m 12,9 km/h (3 Bft)
11.02.2014 04:52 5,1 C 3,3 C 93 % 999,8 hPa 0,0 l/m 0 min 0 min 0,0 UV-I 0 W/m 18,0 km/h (3 Bft)
11.02.2014 04:54 5,1 C 3,3 C 93 % 999,8 hPa 0,0 l/m 0 min 0 min 0,0 UV-I 0 W/m 7,7 km/h (2 Bft)
11.02.2014 04:56 5,1 C 3,3 C 93 % 999,8 hPa 0,0 l/m 0 min 0 min 0,0 UV-I 0 W/m 12,9 km/h (3 Bft)
11.02.2014 04:58 5,1 C 3,3 C 93 % 999,9 hPa 0,0 l/m 0 min 0 min 0,0 UV-I 0 W/m 7,7 km/h (2 Bft)
11.02.2014 05:00 5,1 C 3,3 C 92 % 999,8 hPa 0,0 l/m 0 min 0 min 0,0 UV-I 0 W/m 7,7 km/h (2 Bft)
11.02.2014 05:02 5,1 C 3,3 C 93 % 999,9 hPa 0,0 l/m 0 min 0 min 0,0 UV-I 0 W/m 7,7 km/h (2 Bft)
11.02.2014 05:04 5,1 C 3,3 C 92 % 1000,0 hPa 0,0 l/m 0 min 0 min 0,0 UV-I 0 W/m 12,9 km/h (3 Bft)
11.02.2014 05:06 5,1 C 3,3 C 92 % 999,9 hPa 0,0 l/m 0 min 0 min 0,0 UV-I 0 W/m 12,9 km/h (3 Bft)
11.02.2014 05:08 5,1 C 3,3 C 92 % 1000,0 hPa 0,0 l/m 0 min 0 min 0,0 UV-I 0 W/m 12,9 km/h (3 Bft)
11.02.2014 05:10 5,1 C 3,3 C 92 % 1000,1 hPa 0,0 l/m 0 min 0 min 0,0 UV-I 0 W/m 10,3 km/h (2 Bft)
11.02.2014 05:12 5,1 C 3,3 C 92 % 1000,1 hPa 0,0 l/m 0 min 0 min 0,0 UV-I 0 W/m 12,9 km/h (3 Bft)
11.02.2014 05:14 5,2 C 3,3 C 92 % 1000,1 hPa 0,0 l/m 0 min 0 min 0,0 UV-I 0 W/m 12,9 km/h (3 Bft)
11.02.2014 05:16 5,2 C 3,3 C 92 % 1000,2 hPa 0,0 l/m 0 min 0 min 0,0 UV-I 0 W/m 7,7 km/h (2 Bft)
11.02.2014 05:18 5,2 C 3,3 C 92 % 1000,1 hPa 0,0 l/m 0 min 0 min 0,0 UV-I 0 W/m 7,7 km/h (2 Bft)
11.02.2014 05:20 5,2 C 3,3 C 92 % 1000,1 hPa 0,0 l/m 0 min 0 min 0,0 UV-I 0 W/m 7,7 km/h (2 Bft)
11.02.2014 05:22 5,2 C 3,3 C 91 % 1000,1 hPa 0,0 l/m 0 min 0 min 0,0 UV-I 0 W/m 15,4 km/h (3 Bft)
11.02.2014 05:24 5,2 C 3,3 C 91 % 1000,1 hPa 0,0 l/m 0 min 0 min 0,0 UV-I 0 W/m 18,0 km/h (3 Bft)
11.02.2014 05:26 5,2 C 3,3 C 91 % 1000,1 hPa 0,0 l/m 0 min 0 min 0,0 UV-I 0 W/m 15,4 km/h (3 Bft)
11.02.2014 05:28 5,2 C 3,3 C 91 % 1000,1 hPa 0,0 l/m 0 min 0 min 0,0 UV-I 0 W/m 10,3 km/h (2 Bft)
11.02.2014 05:30 5,2 C 3,3 C 91 % 1000,2 hPa 0,0 l/m 0 min 0 min 0,0 UV-I 0 W/m 12,9 km/h (3 Bft)
11.02.2014 05:32 5,2 C 3,3 C 91 % 1000,2 hPa 0,0 l/m 0 min 0 min 0,0 UV-I 0 W/m 7,7 km/h (2 Bft)
11.02.2014 05:34 5,2 C 3,3 C 91 % 1000,2 hPa 0,0 l/m 0 min 0 min 0,0 UV-I 0 W/m 12,9 km/h (3 Bft)
11.02.2014 05:36 5,2 C 3,3 C 91 % 1000,3 hPa 0,0 l/m 0 min 0 min 0,0 UV-I 0 W/m 15,4 km/h (3 Bft)
11.02.2014 05:38 5,2 C 3,3 C 91 % 1000,2 hPa 0,0 l/m 0 min 0 min 0,0 UV-I 0 W/m 2,6 km/h (1 Bft)
11.02.2014 05:40 5,2 C 3,3 C 91 % 1000,3 hPa 0,0 l/m 0 min 0 min 0,0 UV-I 0 W/m 12,9 km/h (3 Bft)
11.02.2014 05:42 5,2 C 3,9 C 91 % 1000,3 hPa 0,0 l/m 0 min 0 min 0,0 UV-I 0 W/m 15,4 km/h (3 Bft)
11.02.2014 05:44 5,2 C 3,9 C 91 % 1000,3 hPa 0,0 l/m 0 min 0 min 0,0 UV-I 0 W/m 7,7 km/h (2 Bft)
11.02.2014 05:46 5,2 C 3,9 C 91 % 1000,2 hPa 0,0 l/m 0 min 0 min 0,0 UV-I 0 W/m 10,3 km/h (2 Bft)
11.02.2014 05:48 5,2 C 3,9 C 91 % 1000,3 hPa 0,0 l/m 0 min 0 min 0,0 UV-I 0 W/m 12,9 km/h (3 Bft)
11.02.2014 05:50 5,2 C 3,9 C 91 % 1000,4 hPa 0,0 l/m 0 min 0 min 0,0 UV-I 0 W/m 15,4 km/h (3 Bft)
11.02.2014 05:52 5,2 C 3,9 C 91 % 1000,3 hPa 0,0 l/m 0 min 0 min 0,0 UV-I 0 W/m 10,3 km/h (2 Bft)
11.02.2014 05:54 5,2 C 3,3 C 91 % 1000,4 hPa 0,0 l/m 0 min 0 min 0,0 UV-I 0 W/m 7,7 km/h (2 Bft)
11.02.2014 05:56 5,2 C 3,9 C 90 % 1000,5 hPa 0,0 l/m 0 min 0 min 0,0 UV-I 0 W/m 18,0 km/h (3 Bft)
11.02.2014 05:58 5,2 C 3,9 C 90 % 1000,4 hPa 0,0 l/m 0 min 0 min 0,0 UV-I 0 W/m 18,0 km/h (3 Bft)
11.02.2014 06:00 5,2 C 3,9 C 90 % 1000,5 hPa 0,0 l/m 0 min 0 min 0,0 UV-I 0 W/m 20,6 km/h (4 Bft)
11.02.2014 06:02 5,3 C 3,9 C 90 % 1000,5 hPa 0,0 l/m 0 min 0 min 0,0 UV-I 0 W/m 20,6 km/h (4 Bft)
11.02.2014 06:04 5,3 C 3,9 C 90 % 1000,4 hPa 0,0 l/m 0 min 0 min 0,0 UV-I 0 W/m 12,9 km/h (3 Bft)
11.02.2014 06:06 5,3 C 3,9 C 90 % 1000,4 hPa 0,0 l/m 0 min 0 min 0,0 UV-I 0 W/m 10,3 km/h (2 Bft)
11.02.2014 06:08 5,3 C 3,9 C 90 % 1000,3 hPa 0,0 l/m 0 min 0 min 0,0 UV-I 0 W/m 10,3 km/h (2 Bft)
11.02.2014 06:10 5,3 C 3,9 C 90 % 1000,5 hPa 0,0 l/m 0 min 0 min 0,0 UV-I 0 W/m 15,4 km/h (3 Bft)
11.02.2014 06:12 5,3 C 3,9 C 90 % 1000,4 hPa 0,0 l/m 0 min 0 min 0,0 UV-I 0 W/m 15,4 km/h (3 Bft)
11.02.2014 06:14 5,3 C 3,9 C 90 % 1000,4 hPa 0,0 l/m 0 min 0 min 0,0 UV-I 0 W/m 12,9 km/h (3 Bft)
11.02.2014 06:16 5,3 C 3,9 C 90 % 1000,4 hPa 0,0 l/m 0 min 0 min 0,0 UV-I 0 W/m 10,3 km/h (2 Bft)
11.02.2014 06:18 5,3 C 3,9 C 90 % 1000,4 hPa 0,0 l/m 0 min 0 min 0,0 UV-I 0 W/m 12,9 km/h (3 Bft)
11.02.2014 06:20 5,3 C 3,9 C 90 % 1000,4 hPa 0,0 l/m 0 min 0 min 0,0 UV-I 0 W/m 15,4 km/h (3 Bft)
11.02.2014 06:22 5,3 C 3,9 C 90 % 1000,3 hPa 0,0 l/m 0 min 0 min 0,0 UV-I 0 W/m 10,3 km/h (2 Bft)
11.02.2014 06:24 5,3 C 3,9 C 90 % 1000,3 hPa 0,0 l/m 0 min 0 min 0,0 UV-I 0 W/m 18,0 km/h (3 Bft)
11.02.2014 06:26 5,3 C 3,9 C 90 % 1000,3 hPa 0,0 l/m 0 min 0 min 0,0 UV-I 0 W/m 18,0 km/h (3 Bft)
11.02.2014 06:28 5,3 C 3,9 C 90 % 1000,5 hPa 0,0 l/m 0 min 0 min 0,0 UV-I 0 W/m 18,0 km/h (3 Bft)
11.02.2014 06:30 5,3 C 3,9 C 89 % 1000,5 hPa 0,0 l/m 0 min 0 min 0,0 UV-I 0 W/m 25,7 km/h (4 Bft)
11.02.2014 06:32 5,3 C 3,9 C 89 % 1000,5 hPa 0,0 l/m 0 min 0 min 0,0 UV-I 0 W/m 23,2 km/h (4 Bft)
11.02.2014 06:34 5,3 C 3,9 C 89 % 1000,6 hPa 0,0 l/m 0 min 0 min 0,0 UV-I 0 W/m 7,7 km/h (2 Bft)
11.02.2014 06:36 5,3 C 3,3 C 89 % 1000,6 hPa 0,0 l/m 0 min 0 min 0,0 UV-I 0 W/m 18,0 km/h (3 Bft)
11.02.2014 06:38 5,3 C 3,3 C 89 % 1000,6 hPa 0,0 l/m 0 min 0 min 0,0 UV-I 0 W/m 15,4 km/h (3 Bft)
11.02.2014 06:40 5,3 C 3,3 C 89 % 1000,6 hPa 0,0 l/m 0 min 0 min 0,0 UV-I 0 W/m 18,0 km/h (3 Bft)
11.02.2014 06:42 5,3 C 3,3 C 89 % 1000,7 hPa 0,0 l/m 0 min 0 min 0,0 UV-I 0 W/m 12,9 km/h (3 Bft)
11.02.2014 06:44 5,3 C 3,3 C 89 % 1000,6 hPa 0,0 l/m 0 min 0 min 0,0 UV-I 0 W/m 23,2 km/h (4 Bft)
11.02.2014 06:46 5,3 C 3,3 C 89 % 1000,8 hPa 0,0 l/m 0 min 0 min 0,0 UV-I 0 W/m 18,0 km/h (3 Bft)
11.02.2014 06:48 5,2 C 3,3 C 88 % 1000,7 hPa 0,0 l/m 0 min 0 min 0,0 UV-I 0 W/m 15,4 km/h (3 Bft)
11.02.2014 06:50 5,2 C 3,3 C 88 % 1000,8 hPa 0,0 l/m 0 min 0 min 0,0 UV-I 0 W/m 15,4 km/h (3 Bft)
11.02.2014 06:52 5,2 C 3,3 C 88 % 1000,8 hPa 0,0 l/m 0 min 0 min 0,0 UV-I 0 W/m 12,9 km/h (3 Bft)
11.02.2014 06:54 5,2 C 3,3 C 88 % 1000,7 hPa 0,0 l/m 0 min 0 min 0,0 UV-I 0 W/m 18,0 km/h (3 Bft)
11.02.2014 06:56 5,2 C 3,3 C 88 % 1000,8 hPa 0,0 l/m 0 min 0 min 0,0 UV-I 0 W/m 18,0 km/h (3 Bft)
11.02.2014 06:58 5,2 C 3,3 C 88 % 1000,8 hPa 0,0 l/m 0 min 0 min 0,0 UV-I 0 W/m 18,0 km/h (3 Bft)
11.02.2014 07:00 5,2 C 3,3 C 87 % 1000,9 hPa 0,0 l/m 0 min 0 min 0,0 UV-I 0 W/m 12,9 km/h (3 Bft)
11.02.2014 07:02 5,2 C 3,3 C 87 % 1001,0 hPa 0,0 l/m 0 min 0 min 0,0 UV-I 0 W/m 18,0 km/h (3 Bft)
11.02.2014 07:04 5,2 C 3,3 C 87 % 1001,0 hPa 0,0 l/m 0 min 0 min 0,0 UV-I 0 W/m 20,6 km/h (4 Bft)
11.02.2014 07:06 5,2 C 3,3 C 87 % 1001,0 hPa 0,0 l/m 0 min 0 min 0,0 UV-I 0 W/m 15,4 km/h (3 Bft)
11.02.2014 07:08 5,2 C 3,3 C 87 % 1000,9 hPa 0,0 l/m 0 min 0 min 0,0 UV-I 0 W/m 15,4 km/h (3 Bft)
11.02.2014 07:10 5,2 C 3,3 C 87 % 1000,9 hPa 0,0 l/m 0 min 0 min 0,0 UV-I 0 W/m 18,0 km/h (3 Bft)
11.02.2014 07:12 5,2 C 3,3 C 86 % 1001,0 hPa 0,0 l/m 0 min 0 min 0,0 UV-I 0 W/m 15,4 km/h (3 Bft)
11.02.2014 07:14 5,2 C 3,3 C 86 % 1001,0 hPa 0,0 l/m 0 min 0 min 0,0 UV-I 0 W/m 20,6 km/h (4 Bft)
11.02.2014 07:16 5,2 C 3,3 C 86 % 1001,1 hPa 0,0 l/m 0 min 0 min 0,0 UV-I 0 W/m 20,6 km/h (4 Bft)
11.02.2014 07:18 5,1 C 3,3 C 86 % 1001,2 hPa 0,0 l/m 0 min 0 min 0,0 UV-I 0 W/m 12,9 km/h (3 Bft)
11.02.2014 07:20 5,1 C 3,3 C 86 % 1001,2 hPa 0,0 l/m 0 min 0 min 0,0 UV-I 0 W/m 12,9 km/h (3 Bft)
11.02.2014 07:22 5,1 C 3,3 C 86 % 1001,3 hPa 0,0 l/m 0 min 0 min 0,0 UV-I 0 W/m 23,2 km/h (4 Bft)
11.02.2014 07:24 5,1 C 3,3 C 86 % 1001,3 hPa 0,0 l/m 0 min 0 min 0,0 UV-I 0 W/m 15,4 km/h (3 Bft)
11.02.2014 07:26 5,1 C 3,3 C 86 % 1001,4 hPa 0,0 l/m 0 min 0 min 0,0 UV-I 0 W/m 20,6 km/h (4 Bft)
11.02.2014 07:28 5,1 C 3,3 C 86 % 1001,4 hPa 0,0 l/m 0 min 0 min 0,0 UV-I 0 W/m 15,4 km/h (3 Bft)
11.02.2014 07:30 5,1 C 3,3 C 86 % 1001,3 hPa 0,0 l/m 0 min 0 min 0,0 UV-I 0 W/m 15,4 km/h (3 Bft)
11.02.2014 07:32 5,1 C 3,3 C 86 % 1001,4 hPa 0,0 l/m 0 min 0 min 0,0 UV-I 0 W/m 10,3 km/h (2 Bft)
11.02.2014 07:34 5,1 C 3,3 C 86 % 1001,5 hPa 0,0 l/m 0 min 0 min 0,0 UV-I 0 W/m 28,3 km/h (4 Bft)
11.02.2014 07:36 5,1 C 3,3 C 86 % 1001,5 hPa 0,0 l/m 0 min 0 min 0,0 UV-I 0 W/m 10,3 km/h (2 Bft)
11.02.2014 07:38 5,1 C 3,3 C 86 % 1001,7 hPa 0,0 l/m 0 min 0 min 0,0 UV-I 0 W/m 30,9 km/h (5 Bft)
11.02.2014 07:40 5,1 C 3,3 C 85 % 1001,7 hPa 0,0 l/m 0 min 0 min 0,0 UV-I 0 W/m 25,7 km/h (4 Bft)
11.02.2014 07:42 5,1 C 3,3 C 85 % 1001,7 hPa 0,0 l/m 0 min 0 min 0,0 UV-I 0 W/m 18,0 km/h (3 Bft)
11.02.2014 07:44 5,1 C 3,3 C 85 % 1001,7 hPa 0,0 l/m 0 min 0 min 0,0 UV-I 0 W/m 25,7 km/h (4 Bft)
11.02.2014 07:46 5,1 C 3,3 C 85 % 1001,7 hPa 0,0 l/m 0 min 0 min 0,0 UV-I 0 W/m 15,4 km/h (3 Bft)
11.02.2014 07:48 5,1 C 3,3 C 85 % 1001,7 hPa 0,0 l/m 0 min 0 min 0,0 UV-I 0 W/m 18,0 km/h (3 Bft)
11.02.2014 07:50 5,1 C 3,3 C 85 % 1001,7 hPa 0,0 l/m 0 min 2 min 0,0 UV-I 0 W/m 15,4 km/h (3 Bft)
11.02.2014 07:52 5,1 C 3,3 C 85 % 1001,8 hPa 0,0 l/m 0 min 0 min 0,0 UV-I 0 W/m 15,4 km/h (3 Bft)
11.02.2014 07:54 5,1 C 3,3 C 86 % 1001,7 hPa 0,0 l/m 0 min 2 min 0,0 UV-I 0 W/m 18,0 km/h (3 Bft)
11.02.2014 07:56 5,1 C 3,3 C 86 % 1001,7 hPa 0,0 l/m 0 min 0 min 0,0 UV-I 0 W/m 15,4 km/h (3 Bft)
11.02.2014 07:58 5,1 C 3,3 C 86 % 1001,7 hPa 0,0 l/m 0 min 0 min 0,0 UV-I 0 W/m 18,0 km/h (3 Bft)
11.02.2014 08:00 5,1 C 3,3 C 86 % 1001,7 hPa 0,0 l/m 0 min 0 min 0,0 UV-I 0 W/m 12,9 km/h (3 Bft)
11.02.2014 08:02 5,0 C 3,3 C 86 % 1001,8 hPa 0,0 l/m 0 min 0 min 0,0 UV-I 0 W/m 12,9 km/h (3 Bft)
11.02.2014 08:04 5,0 C 3,3 C 86 % 1001,9 hPa 0,0 l/m 0 min 0 min 0,0 UV-I 0 W/m 12,9 km/h (3 Bft)
11.02.2014 08:06 5,0 C 3,3 C 86 % 1001,8 hPa 0,0 l/m 0 min 0 min 0,0 UV-I 0 W/m 12,9 km/h (3 Bft)
11.02.2014 08:08 5,0 C 3,3 C 86 % 1001,8 hPa 0,0 l/m 0 min 0 min 0,0 UV-I 0 W/m 12,9 km/h (3 Bft)
11.02.2014 08:10 5,0 C 3,3 C 86 % 1001,8 hPa 0,0 l/m 0 min 0 min 0,0 UV-I 5 W/m 15,4 km/h (3 Bft)
11.02.2014 08:12 5,0 C 3,3 C 86 % 1001,8 hPa 0,0 l/m 0 min 0 min 0,0 UV-I 5 W/m 10,3 km/h (2 Bft)
11.02.2014 08:14 4,9 C 3,3 C 86 % 1001,8 hPa 0,0 l/m 0 min 0 min 0,0 UV-I 7 W/m 18,0 km/h (3 Bft)
11.02.2014 08:16 4,9 C 3,3 C 86 % 1001,9 hPa 0,0 l/m 0 min 0 min 0,0 UV-I 7 W/m 15,4 km/h (3 Bft)
11.02.2014 08:18 5,0 C 3,3 C 86 % 1001,8 hPa 0,0 l/m 0 min 0 min 0,0 UV-I 7 W/m 7,7 km/h (2 Bft)
11.02.2014 08:20 5,0 C 3,3 C 86 % 1001,9 hPa 0,0 l/m 0 min 0 min 0,0 UV-I 9 W/m 18,0 km/h (3 Bft)
11.02.2014 08:22 5,0 C 3,3 C 85 % 1001,9 hPa 0,0 l/m 0 min 0 min 0,0 UV-I 11 W/m 10,3 km/h (2 Bft)
11.02.2014 08:24 5,0 C 3,3 C 85 % 1002,0 hPa 0,0 l/m 0 min 0 min 0,0 UV-I 11 W/m 20,6 km/h (4 Bft)
11.02.2014 08:26 5,0 C 3,3 C 85 % 1002,0 hPa 0,0 l/m 0 min 0 min 0,0 UV-I 11 W/m 5,1 km/h (1 Bft)
11.02.2014 08:28 5,0 C 3,3 C 85 % 1002,0 hPa 0,0 l/m 0 min 0 min 0,0 UV-I 12 W/m 12,9 km/h (3 Bft)
11.02.2014 08:30 5,0 C 3,3 C 85 % 1002,0 hPa 0,0 l/m 0 min 0 min 0,0 UV-I 16 W/m 15,4 km/h (3 Bft)
11.02.2014 08:32 5,0 C 3,3 C 85 % 1002,0 hPa 0,0 l/m 0 min 0 min 0,0 UV-I 14 W/m 25,7 km/h (4 Bft)
11.02.2014 08:34 5,0 C 3,3 C 85 % 1002,1 hPa 0,0 l/m 0 min 0 min 0,0 UV-I 14 W/m 10,3 km/h (2 Bft)
11.02.2014 08:36 5,0 C 3,3 C 85 % 1002,1 hPa 0,0 l/m 0 min 0 min 0,0 UV-I 16 W/m 18,0 km/h (3 Bft)
11.02.2014 08:38 5,0 C 3,3 C 85 % 1002,1 hPa 0,0 l/m 0 min 0 min 0,0 UV-I 16 W/m 18,0 km/h (3 Bft)
11.02.2014 08:40 5,0 C 3,3 C 85 % 1002,1 hPa 0,0 l/m 0 min 0 min 0,0 UV-I 18 W/m 15,4 km/h (3 Bft)
11.02.2014 08:42 5,1 C 3,3 C 85 % 1002,1 hPa 0,0 l/m 0 min 0 min 0,0 UV-I 19 W/m 10,3 km/h (2 Bft)
11.02.2014 08:44 5,1 C 3,3 C 85 % 1002,1 hPa 0,0 l/m 0 min 0 min 0,0 UV-I 21 W/m 12,9 km/h (3 Bft)
11.02.2014 08:46 5,1 C 3,3 C 85 % 1002,0 hPa 0,0 l/m 0 min 0 min 0,0 UV-I 23 W/m 23,2 km/h (4 Bft)
11.02.2014 08:48 5,1 C 3,3 C 85 % 1002,1 hPa 0,0 l/m 0 min 0 min 0,0 UV-I 25 W/m 23,2 km/h (4 Bft)
11.02.2014 08:50 5,1 C 3,3 C 84 % 1002,1 hPa 0,0 l/m 0 min 0 min 0,0 UV-I 25 W/m 15,4 km/h (3 Bft)
11.02.2014 08:52 5,1 C 3,3 C 84 % 1002,1 hPa 0,0 l/m 0 min 0 min 0,0 UV-I 23 W/m 10,3 km/h (2 Bft)
11.02.2014 08:54 5,1 C 3,3 C 84 % 1002,2 hPa 0,0 l/m 0 min 0 min 0,0 UV-I 25 W/m 10,3 km/h (2 Bft)
11.02.2014 08:56 5,1 C 3,3 C 84 % 1002,2 hPa 0,0 l/m 0 min 0 min 0,0 UV-I 19 W/m 12,9 km/h (3 Bft)
11.02.2014 08:58 5,1 C 3,3 C 84 % 1002,3 hPa 0,0 l/m 0 min 0 min 0,0 UV-I 18 W/m 20,6 km/h (4 Bft)
11.02.2014 09:00 5,1 C 3,3 C 84 % 1002,3 hPa 0,0 l/m 0 min 0 min 0,0 UV-I 21 W/m 10,3 km/h (2 Bft)
11.02.2014 09:02 5,1 C 3,3 C 84 % 1002,2 hPa 0,0 l/m 0 min 0 min 0,0 UV-I 23 W/m 15,4 km/h (3 Bft)
11.02.2014 09:04 5,1 C 3,3 C 84 % 1002,3 hPa 0,0 l/m 0 min 0 min 0,0 UV-I 26 W/m 12,9 km/h (3 Bft)
11.02.2014 09:06 5,1 C 3,3 C 84 % 1002,2 hPa 0,0 l/m 0 min 0 min 0,0 UV-I 32 W/m 18,0 km/h (3 Bft)
11.02.2014 09:08 5,1 C 3,3 C 84 % 1002,3 hPa 0,0 l/m 0 min 0 min 0,0 UV-I 33 W/m 12,9 km/h (3 Bft)
11.02.2014 09:10 5,1 C 3,3 C 84 % 1002,2 hPa 0,0 l/m 0 min 0 min 0,0 UV-I 33 W/m 18,0 km/h (3 Bft)
11.02.2014 09:12 5,1 C 3,9 C 84 % 1002,2 hPa 0,0 l/m 0 min 0 min 0,0 UV-I 37 W/m 12,9 km/h (3 Bft)
11.02.2014 09:14 5,1 C 3,9 C 84 % 1002,3 hPa 0,0 l/m 0 min 0 min 0,0 UV-I 46 W/m 25,7 km/h (4 Bft)
11.02.2014 09:16 5,1 C 3,9 C 84 % 1002,2 hPa 0,0 l/m 0 min 0 min 0,0 UV-I 44 W/m 30,9 km/h (5 Bft)
11.02.2014 09:18 5,1 C 3,9 C 84 % 1002,3 hPa 0,0 l/m 0 min 0 min 0,0 UV-I 47 W/m 18,0 km/h (3 Bft)
11.02.2014 09:20 5,1 C 3,9 C 84 % 1002,3 hPa 0,0 l/m 0 min 0 min 0,0 UV-I 53 W/m 25,7 km/h (4 Bft)
11.02.2014 09:22 5,1 C 3,9 C 84 % 1002,3 hPa 0,0 l/m 0 min 0 min 0,0 UV-I 54 W/m 28,3 km/h (4 Bft)
11.02.2014 09:24 5,1 C 3,9 C 84 % 1002,3 hPa 0,0 l/m 0 min 0 min 0,0 UV-I 107 W/m 18,0 km/h (3 Bft)
11.02.2014 09:26 5,1 C 3,9 C 84 % 1002,3 hPa 0,0 l/m 0 min 0 min 0,0 UV-I 51 W/m 15,4 km/h (3 Bft)
11.02.2014 09:28 5,1 C 3,9 C 84 % 1002,3 hPa 0,0 l/m 0 min 0 min 0,0 UV-I 53 W/m 23,2 km/h (4 Bft)
11.02.2014 09:30 5,1 C 3,9 C 84 % 1002,3 hPa 0,0 l/m 0 min 0 min 0,0 UV-I 54 W/m 15,4 km/h (3 Bft)
11.02.2014 09:32 5,1 C 3,9 C 84 % 1002,3 hPa 0,0 l/m 2 min 0 min 0,0 UV-I 160 W/m 18,0 km/h (3 Bft)
11.02.2014 09:34 5,2 C 3,9 C 84 % 1002,3 hPa 0,0 l/m 2 min 0 min 0,0 UV-I 156 W/m 15,4 km/h (3 Bft)
11.02.2014 09:36 5,2 C 3,9 C 84 % 1002,3 hPa 0,0 l/m 2 min 0 min 0,0 UV-I 162 W/m 18,0 km/h (3 Bft)
11.02.2014 09:38 5,2 C 3,9 C 84 % 1002,4 hPa 0,0 l/m 2 min 0 min 0,0 UV-I 167 W/m 23,2 km/h (4 Bft)
11.02.2014 09:40 5,2 C 3,9 C 84 % 1002,3 hPa 0,0 l/m 2 min 0 min 0,0 UV-I 169 W/m 10,3 km/h (2 Bft)
11.02.2014 09:42 5,3 C 3,9 C 84 % 1002,4 hPa 0,0 l/m 2 min 0 min 0,0 UV-I 171 W/m 20,6 km/h (4 Bft)
11.02.2014 09:44 5,3 C 3,9 C 84 % 1002,4 hPa 0,0 l/m 2 min 0 min 0,0 UV-I 172 W/m 15,4 km/h (3 Bft)
11.02.2014 09:46 5,4 C 4,4 C 84 % 1002,4 hPa 0,0 l/m 2 min 0 min 0,0 UV-I 181 W/m 10,3 km/h (2 Bft)
11.02.2014 09:48 5,4 C 4,4 C 84 % 1002,4 hPa 0,0 l/m 2 min 0 min 0,0 UV-I 185 W/m 12,9 km/h (3 Bft)
11.02.2014 09:50 5,5 C 4,4 C 84 % 1002,4 hPa 0,0 l/m 2 min 0 min 0,0 UV-I 188 W/m 15,4 km/h (3 Bft)
11.02.2014 09:52 5,6 C 4,4 C 84 % 1002,4 hPa 0,0 l/m 2 min 0 min 0,0 UV-I 193 W/m 18,0 km/h (3 Bft)
11.02.2014 09:54 5,6 C 4,4 C 84 % 1002,4 hPa 0,0 l/m 2 min 0 min 0,0 UV-I 197 W/m 15,4 km/h (3 Bft)
11.02.2014 09:56 5,6 C 4,4 C 84 % 1002,3 hPa 0,0 l/m 2 min 0 min 0,0 UV-I 200 W/m 18,0 km/h (3 Bft)
11.02.2014 09:58 5,7 C 4,4 C 84 % 1002,3 hPa 0,0 l/m 2 min 0 min 0,0 UV-I 204 W/m 18,0 km/h (3 Bft)
11.02.2014 10:00 5,7 C 4,4 C 83 % 1002,4 hPa 0,0 l/m 2 min 0 min 0,0 UV-I 151 W/m 12,9 km/h (3 Bft)
11.02.2014 10:02 5,7 C 4,4 C 83 % 1002,3 hPa 0,0 l/m 2 min 0 min 0,0 UV-I 153 W/m 18,0 km/h (3 Bft)
11.02.2014 10:04 5,8 C 4,4 C 83 % 1002,4 hPa 0,0 l/m 2 min 0 min 0,0 UV-I 206 W/m 20,6 km/h (4 Bft)
11.02.2014 10:06 5,8 C 4,4 C 83 % 1002,4 hPa 0,0 l/m 2 min 0 min 0,0 UV-I 216 W/m 18,0 km/h (3 Bft)
11.02.2014 10:08 5,8 C 4,4 C 83 % 1002,4 hPa 0,0 l/m 2 min 0 min 0,0 UV-I 221 W/m 20,6 km/h (4 Bft)
11.02.2014 10:10 5,9 C 4,4 C 83 % 1002,5 hPa 0,0 l/m 2 min 0 min 0,0 UV-I 241 W/m 18,0 km/h (3 Bft)
11.02.2014 10:12 5,9 C 4,4 C 83 % 1002,4 hPa 0,0 l/m 2 min 0 min 0,0 UV-I 241 W/m 15,4 km/h (3 Bft)
11.02.2014 10:14 5,9 C 4,4 C 83 % 1002,4 hPa 0,0 l/m 2 min 0 min 0,0 UV-I 227 W/m 25,7 km/h (4 Bft)
11.02.2014 10:16 5,9 C 4,4 C 83 % 1002,5 hPa 0,0 l/m 2 min 0 min 0,0 UV-I 257 W/m 12,9 km/h (3 Bft)
11.02.2014 10:18 6,0 C 5,0 C 83 % 1002,5 hPa 0,0 l/m 2 min 0 min 0,0 UV-I 165 W/m 10,3 km/h (2 Bft)
11.02.2014 10:20 6,1 C 5,0 C 83 % 1002,5 hPa 0,0 l/m 0 min 0 min 0,0 UV-I 165 W/m 18,0 km/h (3 Bft)
11.02.2014 10:22 6,2 C 5,0 C 83 % 1002,6 hPa 0,0 l/m 2 min 0 min 0,0 UV-I 253 W/m 5,1 km/h (1 Bft)
11.02.2014 10:24 6,2 C 5,0 C 83 % 1002,5 hPa 0,0 l/m 0 min 0 min 0,0 UV-I 139 W/m 12,9 km/h (3 Bft)
11.02.2014 10:26 6,2 C 5,0 C 83 % 1002,5 hPa 0,0 l/m 0 min 0 min 0,0 UV-I 135 W/m 25,7 km/h (4 Bft)
11.02.2014 10:28 6,2 C 5,0 C 83 % 1002,5 hPa 0,0 l/m 0 min 0 min 0,0 UV-I 135 W/m 15,4 km/h (3 Bft)
11.02.2014 10:30 6,2 C 5,0 C 83 % 1002,6 hPa 0,0 l/m 0 min 0 min 0,0 UV-I 132 W/m 12,9 km/h (3 Bft)
11.02.2014 10:32 6,2 C 5,0 C 83 % 1002,6 hPa 0,0 l/m 0 min 0 min 0,0 UV-I 88 W/m 12,9 km/h (3 Bft)
11.02.2014 10:34 6,2 C 5,0 C 83 % 1002,5 hPa 0,0 l/m 0 min 0 min 0,0 UV-I 100 W/m 10,3 km/h (2 Bft)
11.02.2014 10:36 6,1 C 5,0 C 83 % 1002,6 hPa 0,0 l/m 0 min 0 min 0,0 UV-I 95 W/m 20,6 km/h (4 Bft)
11.02.2014 10:38 6,1 C 5,0 C 83 % 1002,6 hPa 0,0 l/m 2 min 0 min 0,0 UV-I 251 W/m 12,9 km/h (3 Bft)
11.02.2014 10:40 6,2 C 5,6 C 83 % 1002,6 hPa 0,0 l/m 2 min 0 min 0,0 UV-I 251 W/m 25,7 km/h (4 Bft)
11.02.2014 10:42 6,3 C 5,6 C 83 % 1002,6 hPa 0,0 l/m 2 min 0 min 0,0 UV-I 211 W/m 10,3 km/h (2 Bft)
11.02.2014 10:44 6,4 C 5,6 C 83 % 1002,7 hPa 0,0 l/m 0 min 0 min 0,0 UV-I 146 W/m 25,7 km/h (4 Bft)
11.02.2014 10:46 6,3 C 5,6 C 83 % 1002,7 hPa 0,0 l/m 0 min 0 min 0,0 UV-I 167 W/m 15,4 km/h (3 Bft)
11.02.2014 10:48 6,3 C 5,6 C 83 % 1002,7 hPa 0,0 l/m 0 min 0 min 0,0 UV-I 142 W/m 12,9 km/h (3 Bft)
11.02.2014 10:50 6,4 C 5,6 C 83 % 1002,6 hPa 0,0 l/m 0 min 0 min 0,0 UV-I 141 W/m 12,9 km/h (3 Bft)
11.02.2014 10:52 6,3 C 5,6 C 83 % 1002,7 hPa 0,0 l/m 0 min 0 min 0,0 UV-I 109 W/m 20,6 km/h (4 Bft)
11.02.2014 10:54 6,3 C 5,6 C 83 % 1002,7 hPa 0,0 l/m 0 min 0 min 0,0 UV-I 137 W/m 12,9 km/h (3 Bft)
11.02.2014 10:56 6,3 C 5,6 C 83 % 1002,6 hPa 0,0 l/m 0 min 0 min 0,0 UV-I 109 W/m 12,9 km/h (3 Bft)
11.02.2014 10:58 6,4 C 5,6 C 83 % 1002,6 hPa 0,0 l/m 0 min 0 min 0,0 UV-I 114 W/m 2,6 km/h (1 Bft)
11.02.2014 11:00 6,4 C 5,6 C 83 % 1002,6 hPa 0,0 l/m 0 min 0 min 0,0 UV-I 130 W/m 18,0 km/h (3 Bft)
11.02.2014 11:02 6,3 C 5,0 C 83 % 1002,6 hPa 0,0 l/m 0 min 0 min 0,0 UV-I 139 W/m 15,4 km/h (3 Bft)
11.02.2014 11:04 6,3 C 5,6 C 83 % 1002,6 hPa 0,0 l/m 2 min 0 min 0,0 UV-I 359 W/m 18,0 km/h (3 Bft)
11.02.2014 11:06 6,4 C 5,6 C 83 % 1002,5 hPa 0,0 l/m 0 min 0 min 0,0 UV-I 160 W/m 15,4 km/h (3 Bft)
11.02.2014 11:08 6,5 C 5,6 C 83 % 1002,5 hPa 0,0 l/m 2 min 0 min 0,0 UV-I 352 W/m 18,0 km/h (3 Bft)
11.02.2014 11:10 6,6 C 5,6 C 82 % 1002,5 hPa 0,0 l/m 2 min 0 min 0,0 UV-I 371 W/m 30,9 km/h (5 Bft)
11.02.2014 11:12 6,7 C 5,6 C 82 % 1002,3 hPa 0,0 l/m 2 min 0 min 0,0 UV-I 360 W/m 18,0 km/h (3 Bft)
11.02.2014 11:14 6,7 C 5,6 C 82 % 1002,4 hPa 0,0 l/m 2 min 0 min 0,0 UV-I 348 W/m 18,0 km/h (3 Bft)
11.02.2014 11:16 6,8 C 5,6 C 82 % 1002,3 hPa 0,0 l/m 2 min 0 min 0,0 UV-I 336 W/m 20,6 km/h (4 Bft)
11.02.2014 11:18 6,9 C 5,6 C 81 % 1002,3 hPa 0,0 l/m 2 min 0 min 0,0 UV-I 348 W/m 23,2 km/h (4 Bft)
11.02.2014 11:20 7,0 C 5,6 C 81 % 1002,3 hPa 0,0 l/m 2 min 0 min 0,0 UV-I 345 W/m 15,4 km/h (3 Bft)
11.02.2014 11:22 6,9 C 5,6 C 80 % 1002,3 hPa 0,0 l/m 2 min 0 min 0,0 UV-I 348 W/m 15,4 km/h (3 Bft)
11.02.2014 11:24 6,9 C 5,6 C 80 % 1002,2 hPa 0,0 l/m 2 min 0 min 0,0 UV-I 348 W/m 15,4 km/h (3 Bft)
11.02.2014 11:26 6,8 C 5,6 C 80 % 1002,1 hPa 0,0 l/m 2 min 0 min 0,0 UV-I 348 W/m 20,6 km/h (4 Bft)
11.02.2014 11:28 6,9 C 5,6 C 80 % 1002,1 hPa 0,0 l/m 2 min 0 min 0,0 UV-I 313 W/m 20,6 km/h (4 Bft)
11.02.2014 11:30 6,9 C 5,6 C 80 % 1002,2 hPa 0,0 l/m 2 min 0 min 0,0 UV-I 346 W/m 15,4 km/h (3 Bft)
11.02.2014 11:32 7,1 C 5,6 C 80 % 1002,1 hPa 0,0 l/m 2 min 0 min 0,0 UV-I 343 W/m 18,0 km/h (3 Bft)
11.02.2014 11:34 7,3 C 5,6 C 80 % 1002,1 hPa 0,0 l/m 2 min 0 min 0,0 UV-I 348 W/m 12,9 km/h (3 Bft)
11.02.2014 11:36 7,3 C 6,1 C 79 % 1002,2 hPa 0,0 l/m 2 min 0 min 0,0 UV-I 360 W/m 12,9 km/h (3 Bft)
11.02.2014 11:38 7,3 C 6,1 C 79 % 1002,2 hPa 0,0 l/m 2 min 0 min 0,0 UV-I 397 W/m 20,6 km/h (4 Bft)
11.02.2014 11:40 7,5 C 6,1 C 79 % 1002,1 hPa 0,0 l/m 2 min 0 min 0,0 UV-I 366 W/m 12,9 km/h (3 Bft)
11.02.2014 11:42 7,6 C 6,1 C 78 % 1002,1 hPa 0,0 l/m 2 min 0 min 0,0 UV-I 374 W/m 5,1 km/h (1 Bft)
11.02.2014 11:44 7,6 C 6,1 C 78 % 1002,1 hPa 0,0 l/m 2 min 0 min 0,0 UV-I 378 W/m 12,9 km/h (3 Bft)
11.02.2014 11:46 7,7 C 6,7 C 78 % 1002,0 hPa 0,0 l/m 2 min 0 min 0,0 UV-I 320 W/m 23,2 km/h (4 Bft)
11.02.2014 11:48 7,6 C 6,1 C 77 % 1002,0 hPa 0,0 l/m 2 min 0 min 0,0 UV-I 320 W/m 23,2 km/h (4 Bft)
11.02.2014 11:50 7,6 C 6,7 C 77 % 1002,0 hPa 0,0 l/m 2 min 0 min 0,0 UV-I 320 W/m 15,4 km/h (3 Bft)
11.02.2014 11:52 7,7 C 6,7 C 77 % 1002,0 hPa 0,0 l/m 0 min 0 min 0,0 UV-I 195 W/m 10,3 km/h (2 Bft)
11.02.2014 11:54 7,8 C 6,7 C 77 % 1002,0 hPa 0,0 l/m 2 min 0 min 0,0 UV-I 288 W/m 15,4 km/h (3 Bft)
11.02.2014 11:56 7,8 C 6,7 C 77 % 1002,0 hPa 0,0 l/m 0 min 0 min 0,0 UV-I 183 W/m 12,9 km/h (3 Bft)
11.02.2014 11:58 7,8 C 6,7 C 77 % 1002,0 hPa 0,0 l/m 0 min 0 min 0,0 UV-I 181 W/m 10,3 km/h (2 Bft)
11.02.2014 12:00 7,7 C 6,7 C 77 % 1002,1 hPa 0,0 l/m 0 min 0 min 0,0 UV-I 171 W/m 18,0 km/h (3 Bft)
11.02.2014 12:02 7,7 C 6,7 C 76 % 1002,0 hPa 0,0 l/m 0 min 0 min 0,0 UV-I 174 W/m 15,4 km/h (3 Bft)
11.02.2014 12:04 7,8 C 7,2 C 77 % 1001,9 hPa 0,0 l/m 2 min 0 min 0,0 UV-I 487 W/m 12,9 km/h (3 Bft)
11.02.2014 12:06 7,9 C 7,2 C 77 % 1001,9 hPa 0,0 l/m 2 min 0 min 0,0 UV-I 230 W/m 7,7 km/h (2 Bft)
11.02.2014 12:08 7,9 C 7,2 C 77 % 1001,8 hPa 0,0 l/m 0 min 0 min 0,0 UV-I 174 W/m 10,3 km/h (2 Bft)
11.02.2014 12:10 8,1 C 7,2 C 76 % 1001,8 hPa 0,0 l/m 2 min 0 min 0,0 UV-I 490 W/m 23,2 km/h (4 Bft)
11.02.2014 12:12 8,1 C 7,2 C 76 % 1001,8 hPa 0,0 l/m 2 min 0 min 0,0 UV-I 425 W/m 20,6 km/h (4 Bft)
11.02.2014 12:14 8,1 C 7,2 C 75 % 1001,9 hPa 0,0 l/m 2 min 0 min 0,0 UV-I 425 W/m 23,2 km/h (4 Bft)
11.02.2014 12:16 8,2 C 7,2 C 74 % 1001,8 hPa 0,0 l/m 2 min 0 min 0,0 UV-I 425 W/m 25,7 km/h (4 Bft)
11.02.2014 12:18 8,2 C 7,8 C 74 % 1001,8 hPa 0,0 l/m 0 min 0 min 0,0 UV-I 202 W/m 28,3 km/h (4 Bft)
11.02.2014 12:20 8,1 C 7,2 C 73 % 1001,8 hPa 0,0 l/m 0 min 0 min 0,0 UV-I 197 W/m 25,7 km/h (4 Bft)
11.02.2014 12:22 7,9 C 7,2 C 73 % 1001,8 hPa 0,0 l/m 0 min 0 min 0,0 UV-I 171 W/m 33,5 km/h (5 Bft)
11.02.2014 12:24 7,9 C 7,2 C 73 % 1001,8 hPa 0,0 l/m 0 min 0 min 0,0 UV-I 185 W/m 18,0 km/h (3 Bft)
11.02.2014 12:26 7,7 C 7,2 C 74 % 1001,8 hPa 0,0 l/m 0 min 0 min 0,0 UV-I 158 W/m 30,9 km/h (5 Bft)
11.02.2014 12:28 7,7 C 6,7 C 74 % 1001,7 hPa 0,0 l/m 0 min 0 min 0,0 UV-I 186 W/m 20,6 km/h (4 Bft)
11.02.2014 12:30 7,6 C 7,2 C 74 % 1001,8 hPa 0,0 l/m 0 min 0 min 0,0 UV-I 185 W/m 20,6 km/h (4 Bft)
11.02.2014 12:32 7,7 C 7,2 C 75 % 1001,7 hPa 0,0 l/m 2 min 0 min 0,0 UV-I 496 W/m 18,0 km/h (3 Bft)
11.02.2014 12:34 7,9 C 7,2 C 75 % 1001,6 hPa 0,0 l/m 2 min 0 min 0,0 UV-I 515 W/m 15,4 km/h (3 Bft)
11.02.2014 12:36 8,2 C 7,8 C 75 % 1001,5 hPa 0,0 l/m 2 min 0 min 0,0 UV-I 515 W/m 15,4 km/h (3 Bft)
11.02.2014 12:38 8,3 C 7,8 C 74 % 1001,6 hPa 0,0 l/m 2 min 0 min 0,0 UV-I 452 W/m 12,9 km/h (3 Bft)
11.02.2014 12:40 8,3 C 7,8 C 74 % 1001,5 hPa 0,0 l/m 0 min 0 min 0,0 UV-I 137 W/m 20,6 km/h (4 Bft)
11.02.2014 12:42 8,4 C 7,8 C 72 % 1001,5 hPa 0,0 l/m 2 min 0 min 0,0 UV-I 461 W/m 10,3 km/h (2 Bft)
11.02.2014 12:44 8,4 C 7,8 C 72 % 1001,5 hPa 0,0 l/m 2 min 0 min 0,0 UV-I 473 W/m 36,0 km/h (5 Bft)
11.02.2014 12:46 8,6 C 7,8 C 71 % 1001,4 hPa 0,0 l/m 2 min 0 min 0,0 UV-I 448 W/m 25,7 km/h (4 Bft)
11.02.2014 12:48 8,6 C 7,8 C 70 % 1001,4 hPa 0,0 l/m 2 min 0 min 0,0 UV-I 441 W/m 30,9 km/h (5 Bft)
11.02.2014 12:50 8,6 C 7,8 C 69 % 1001,4 hPa 0,0 l/m 2 min 0 min 0,0 UV-I 443 W/m 30,9 km/h (5 Bft)
11.02.2014 12:52 8,7 C 8,3 C 70 % 1001,3 hPa 0,0 l/m 2 min 0 min 0,0 UV-I 432 W/m 20,6 km/h (4 Bft)
11.02.2014 12:54 8,7 C 8,3 C 69 % 1001,3 hPa 0,0 l/m 2 min 0 min 0,0 UV-I 432 W/m 18,0 km/h (3 Bft)
11.02.2014 12:56 8,9 C 8,3 C 69 % 1001,3 hPa 0,0 l/m 2 min 0 min 0,0 UV-I 406 W/m 15,4 km/h (3 Bft)
11.02.2014 12:58 8,9 C 7,8 C 68 % 1001,3 hPa 0,0 l/m 2 min 0 min 0,0 UV-I 401 W/m 20,6 km/h (4 Bft)
11.02.2014 13:00 8,8 C 7,8 C 68 % 1001,2 hPa 0,0 l/m 2 min 0 min 0,0 UV-I 404 W/m 15,4 km/h (3 Bft)
11.02.2014 13:02 8,9 C 7,8 C 68 % 1001,2 hPa 0,0 l/m 2 min 0 min 0,0 UV-I 383 W/m 25,7 km/h (4 Bft)
11.02.2014 13:04 8,8 C 7,8 C 66 % 1001,3 hPa 0,0 l/m 2 min 0 min 0,0 UV-I 299 W/m 20,6 km/h (4 Bft)
11.02.2014 13:06 8,7 C 7,8 C 68 % 1001,2 hPa 0,0 l/m 2 min 0 min 0,0 UV-I 276 W/m 20,6 km/h (4 Bft)
11.02.2014 13:08 8,7 C 7,2 C 68 % 1001,3 hPa 0,0 l/m 2 min 0 min 0,0 UV-I 236 W/m 15,4 km/h (3 Bft)
11.02.2014 13:10 8,5 C 7,2 C 67 % 1001,2 hPa 0,0 l/m 0 min 0 min 0,0 UV-I 230 W/m 18,0 km/h (3 Bft)
11.02.2014 13:12 8,4 C 7,2 C 68 % 1001,2 hPa 0,0 l/m 2 min 0 min 0,0 UV-I 262 W/m 10,3 km/h (2 Bft)
11.02.2014 13:14 8,4 C 7,2 C 69 % 1001,2 hPa 0,0 l/m 2 min 0 min 0,0 UV-I 374 W/m 18,0 km/h (3 Bft)
11.02.2014 13:16 8,4 C 7,2 C 69 % 1001,3 hPa 0,0 l/m 2 min 0 min 0,0 UV-I 446 W/m 20,6 km/h (4 Bft)
11.02.2014 13:18 8,5 C 7,2 C 69 % 1001,2 hPa 0,0 l/m 2 min 0 min 0,0 UV-I 454 W/m 12,9 km/h (3 Bft)
11.02.2014 13:20 8,6 C 7,8 C 69 % 1001,2 hPa 0,0 l/m 2 min 0 min 0,0 UV-I 443 W/m 12,9 km/h (3 Bft)
11.02.2014 13:22 8,7 C 7,8 C 69 % 1001,2 hPa 0,0 l/m 2 min 0 min 0,0 UV-I 466 W/m 12,9 km/h (3 Bft)
11.02.2014 13:24 8,9 C 7,8 C 68 % 1001,2 hPa 0,0 l/m 2 min 0 min 0,0 UV-I 434 W/m 25,7 km/h (4 Bft)
11.02.2014 13:26 9,0 C 7,8 C 67 % 1001,3 hPa 0,0 l/m 2 min 0 min 0,0 UV-I 439 W/m 25,7 km/h (4 Bft)
11.02.2014 13:28 9,1 C 7,8 C 65 % 1001,3 hPa 0,0 l/m 2 min 0 min 0,0 UV-I 425 W/m 20,6 km/h (4 Bft)
11.02.2014 13:30 9,1 C 7,8 C 65 % 1001,3 hPa 0,0 l/m 0 min 0 min 0,0 UV-I 171 W/m 20,6 km/h (4 Bft)
11.02.2014 13:32 8,9 C 7,8 C 64 % 1001,1 hPa 0,0 l/m 2 min 0 min 0,0 UV-I 410 W/m 18,0 km/h (3 Bft)
11.02.2014 13:34 8,9 C 7,8 C 62 % 1001,1 hPa 0,0 l/m 2 min 0 min 0,0 UV-I 381 W/m 20,6 km/h (4 Bft)
11.02.2014 13:36 8,9 C 7,2 C 62 % 1001,1 hPa 0,0 l/m 2 min 0 min 0,0 UV-I 383 W/m 15,4 km/h (3 Bft)
11.02.2014 13:38 8,9 C 7,2 C 62 % 1001,0 hPa 0,0 l/m 2 min 0 min 0,0 UV-I 397 W/m 15,4 km/h (3 Bft)
11.02.2014 13:40 8,9 C 7,8 C 61 % 1001,0 hPa 0,0 l/m 2 min 0 min 0,0 UV-I 404 W/m 30,9 km/h (5 Bft)
11.02.2014 13:42 8,9 C 7,8 C 60 % 1000,9 hPa 0,0 l/m 2 min 0 min 0,0 UV-I 415 W/m 33,5 km/h (5 Bft)
11.02.2014 13:44 8,9 C 7,8 C 59 % 1001,0 hPa 0,0 l/m 2 min 0 min 0,0 UV-I 397 W/m 33,5 km/h (5 Bft)
11.02.2014 13:46 8,8 C 7,2 C 60 % 1000,8 hPa 0,0 l/m 2 min 0 min 0,0 UV-I 390 W/m 18,0 km/h (3 Bft)
11.02.2014 13:48 8,9 C 7,8 C 60 % 1000,8 hPa 0,0 l/m 2 min 0 min 0,0 UV-I 387 W/m 20,6 km/h (4 Bft)
11.02.2014 13:50 8,9 C 7,8 C 61 % 1000,8 hPa 0,0 l/m 2 min 0 min 0,0 UV-I 367 W/m 20,6 km/h (4 Bft)
11.02.2014 13:52 9,0 C 7,8 C 61 % 1000,8 hPa 0,0 l/m 2 min 0 min 0,0 UV-I 359 W/m 15,4 km/h (3 Bft)
11.02.2014 13:54 9,0 C 7,8 C 60 % 1000,9 hPa 0,0 l/m 2 min 0 min 0,0 UV-I 376 W/m 28,3 km/h (4 Bft)
11.02.2014 13:56 9,0 C 7,8 C 60 % 1000,8 hPa 0,0 l/m 2 min 0 min 0,0 UV-I 341 W/m 23,2 km/h (4 Bft)
11.02.2014 13:58 8,9 C 7,2 C 60 % 1000,8 hPa 0,0 l/m 2 min 0 min 0,0 UV-I 343 W/m 23,2 km/h (4 Bft)
11.02.2014 14:00 9,0 C 7,2 C 60 % 1000,8 hPa 0,0 l/m 2 min 0 min 0,0 UV-I 369 W/m 36,0 km/h (5 Bft)
11.02.2014 14:02 9,1 C 7,8 C 61 % 1000,6 hPa 0,0 l/m 2 min 0 min 0,0 UV-I 362 W/m 18,0 km/h (3 Bft)
11.02.2014 14:04 9,2 C 7,8 C 60 % 1000,6 hPa 0,0 l/m 2 min 0 min 0,0 UV-I 267 W/m 18,0 km/h (3 Bft)
11.02.2014 14:06 9,2 C 7,8 C 60 % 1000,7 hPa 0,0 l/m 2 min 0 min 0,0 UV-I 374 W/m 18,0 km/h (3 Bft)
11.02.2014 14:08 9,2 C 7,8 C 60 % 1000,5 hPa 0,0 l/m 2 min 0 min 0,0 UV-I 357 W/m 23,2 km/h (4 Bft)
11.02.2014 14:10 9,1 C 7,8 C 60 % 1000,5 hPa 0,0 l/m 2 min 0 min 0,0 UV-I 229 W/m 18,0 km/h (3 Bft)
11.02.2014 14:12 9,1 C 7,8 C 61 % 1000,5 hPa 0,0 l/m 2 min 0 min 0,0 UV-I 306 W/m 20,6 km/h (4 Bft)
11.02.2014 14:14 9,1 C 7,8 C 61 % 1000,5 hPa 0,0 l/m 2 min 0 min 0,0 UV-I 371 W/m 23,2 km/h (4 Bft)
11.02.2014 14:16 9,2 C 7,8 C 60 % 1000,6 hPa 0,0 l/m 2 min 0 min 0,0 UV-I 355 W/m 28,3 km/h (4 Bft)
11.02.2014 14:18 9,3 C 7,8 C 61 % 1000,6 hPa 0,0 l/m 2 min 0 min 0,0 UV-I 343 W/m 18,0 km/h (3 Bft)
11.02.2014 14:20 9,4 C 8,3 C 60 % 1000,5 hPa 0,0 l/m 2 min 0 min 0,0 UV-I 353 W/m 15,4 km/h (3 Bft)
11.02.2014 14:22 9,4 C 8,3 C 59 % 1000,6 hPa 0,0 l/m 2 min 0 min 0,0 UV-I 376 W/m 20,6 km/h (4 Bft)
11.02.2014 14:24 9,5 C 8,3 C 60 % 1000,5 hPa 0,0 l/m 2 min 0 min 0,0 UV-I 367 W/m 18,0 km/h (3 Bft)
11.02.2014 14:26 9,6 C 8,9 C 60 % 1000,5 hPa 0,0 l/m 2 min 0 min 0,0 UV-I 350 W/m 15,4 km/h (3 Bft)
11.02.2014 14:28 9,7 C 8,9 C 59 % 1000,5 hPa 0,0 l/m 2 min 0 min 0,0 UV-I 352 W/m 23,2 km/h (4 Bft)
11.02.2014 14:30 9,6 C 8,3 C 60 % 1000,5 hPa 0,0 l/m 2 min 0 min 0,0 UV-I 360 W/m 12,9 km/h (3 Bft)
11.02.2014 14:32 9,7 C 8,3 C 59 % 1000,6 hPa 0,0 l/m 2 min 0 min 0,0 UV-I 350 W/m 25,7 km/h (4 Bft)
11.02.2014 14:34 9,6 C 8,3 C 59 % 1000,5 hPa 0,0 l/m 2 min 0 min 0,0 UV-I 343 W/m 20,6 km/h (4 Bft)
11.02.2014 14:36 9,5 C 8,3 C 59 % 1000,5 hPa 0,0 l/m 2 min 0 min 0,0 UV-I 330 W/m 30,9 km/h (5 Bft)
11.02.2014 14:38 9,3 C 7,8 C 59 % 1000,4 hPa 0,0 l/m 2 min 0 min 0,0 UV-I 292 W/m 10,3 km/h (2 Bft)
11.02.2014 14:40 9,3 C 7,8 C 59 % 1000,4 hPa 0,0 l/m 2 min 0 min 0,0 UV-I 281 W/m 15,4 km/h (3 Bft)
11.02.2014 14:42 9,2 C 7,8 C 59 % 1000,3 hPa 0,0 l/m 0 min 0 min 0,0 UV-I 148 W/m 18,0 km/h (3 Bft)
11.02.2014 14:44 9,0 C 7,8 C 60 % 1000,4 hPa 0,0 l/m 0 min 0 min 0,0 UV-I 88 W/m 23,2 km/h (4 Bft)
11.02.2014 14:46 8,8 C 7,2 C 61 % 1000,3 hPa 0,0 l/m 0 min 0 min 0,0 UV-I 95 W/m 18,0 km/h (3 Bft)
11.02.2014 14:48 8,7 C 7,2 C 62 % 1000,2 hPa 0,0 l/m 0 min 0 min 0,0 UV-I 90 W/m 18,0 km/h (3 Bft)
11.02.2014 14:50 8,6 C 7,2 C 61 % 1000,1 hPa 0,0 l/m 0 min 0 min 0,0 UV-I 104 W/m 20,6 km/h (4 Bft)
11.02.2014 14:52 8,6 C 7,2 C 62 % 1000,1 hPa 0,0 l/m 0 min 0 min 0,0 UV-I 109 W/m 20,6 km/h (4 Bft)
11.02.2014 14:54 8,5 C 7,2 C 62 % 1000,2 hPa 0,0 l/m 0 min 0 min 0,0 UV-I 113 W/m 33,5 km/h (5 Bft)
11.02.2014 14:56 8,5 C 7,2 C 62 % 1000,4 hPa 0,0 l/m 0 min 0 min 0,0 UV-I 113 W/m 23,2 km/h (4 Bft)
11.02.2014 14:58 8,4 C 7,2 C 62 % 1000,3 hPa 0,0 l/m 0 min 0 min 0,0 UV-I 111 W/m 7,7 km/h (2 Bft)
11.02.2014 15:00 8,4 C 7,2 C 63 % 1000,2 hPa 0,0 l/m 0 min 0 min 0,0 UV-I 107 W/m 15,4 km/h (3 Bft)
11.02.2014 15:02 8,4 C 7,2 C 62 % 1000,3 hPa 0,0 l/m 0 min 0 min 0,0 UV-I 102 W/m 18,0 km/h (3 Bft)
11.02.2014 15:04 8,4 C 7,2 C 62 % 1000,4 hPa 0,0 l/m 0 min 0 min 0,0 UV-I 102 W/m 15,4 km/h (3 Bft)
11.02.2014 15:06 8,4 C 7,2 C 63 % 1000,3 hPa 0,0 l/m 0 min 0 min 0,0 UV-I 102 W/m 18,0 km/h (3 Bft)
11.02.2014 15:08 8,3 C 7,2 C 62 % 1000,2 hPa 0,0 l/m 0 min 0 min 0,0 UV-I 98 W/m 25,7 km/h (4 Bft)
11.02.2014 15:10 8,3 C 7,2 C 62 % 1000,4 hPa 0,0 l/m 0 min 0 min 0,0 UV-I 98 W/m 18,0 km/h (3 Bft)
11.02.2014 15:12 8,3 C 7,2 C 62 % 1000,4 hPa 0,0 l/m 0 min 0 min 0,0 UV-I 97 W/m 15,4 km/h (3 Bft)
11.02.2014 15:14 8,3 C 7,2 C 62 % 1000,5 hPa 0,0 l/m 0 min 0 min 0,0 UV-I 97 W/m 15,4 km/h (3 Bft)
11.02.2014 15:16 8,3 C 7,2 C 63 % 1000,4 hPa 0,0 l/m 0 min 0 min 0,0 UV-I 93 W/m 15,4 km/h (3 Bft)
11.02.2014 15:18 8,4 C 7,2 C 63 % 1000,4 hPa 0,0 l/m 0 min 0 min 0,0 UV-I 86 W/m 12,9 km/h (3 Bft)
11.02.2014 15:20 8,3 C 7,2 C 63 % 1000,4 hPa 0,0 l/m 0 min 0 min 0,0 UV-I 79 W/m 10,3 km/h (2 Bft)
11.02.2014 15:22 8,3 C 7,2 C 63 % 1000,4 hPa 0,0 l/m 0 min 0 min 0,0 UV-I 77 W/m 28,3 km/h (4 Bft)
11.02.2014 15:24 8,3 C 7,2 C 63 % 1000,5 hPa 0,0 l/m 0 min 0 min 0,0 UV-I 74 W/m 10,3 km/h (2 Bft)
11.02.2014 15:26 8,3 C 7,2 C 64 % 1000,5 hPa 0,0 l/m 0 min 0 min 0,0 UV-I 70 W/m 25,7 km/h (4 Bft)
11.02.2014 15:28 8,3 C 7,2 C 63 % 1000,4 hPa 0,0 l/m 0 min 0 min 0,0 UV-I 67 W/m 18,0 km/h (3 Bft)
11.02.2014 15:30 8,2 C 7,2 C 63 % 1000,4 hPa 0,0 l/m 0 min 0 min 0,0 UV-I 65 W/m 23,2 km/h (4 Bft)
11.02.2014 15:32 8,2 C 7,2 C 63 % 1000,5 hPa 0,0 l/m 0 min 0 min 0,0 UV-I 63 W/m 10,3 km/h (2 Bft)
11.02.2014 15:34 8,2 C 7,2 C 64 % 1000,5 hPa 0,0 l/m 0 min 0 min 0,0 UV-I 62 W/m 2,6 km/h (1 Bft)
11.02.2014 15:36 8,2 C 7,2 C 64 % 1000,5 hPa 0,0 l/m 0 min 0 min 0,0 UV-I 58 W/m 12,9 km/h (3 Bft)
11.02.2014 15:38 8,2 C 6,7 C 63 % 1000,5 hPa 0,0 l/m 0 min 0 min 0,0 UV-I 56 W/m 18,0 km/h (3 Bft)
11.02.2014 15:40 8,2 C 6,7 C 63 % 1000,5 hPa 0,0 l/m 0 min 0 min 0,0 UV-I 54 W/m 23,2 km/h (4 Bft)
11.02.2014 15:42 8,2 C 6,7 C 64 % 1000,4 hPa 0,0 l/m 0 min 0 min 0,0 UV-I 53 W/m 18,0 km/h (3 Bft)
11.02.2014 15:44 8,2 C 6,7 C 66 % 1000,4 hPa 0,0 l/m 0 min 0 min 0,0 UV-I 49 W/m 7,7 km/h (2 Bft)
11.02.2014 15:46 8,2 C 6,7 C 64 % 1000,4 hPa 0,0 l/m 0 min 0 min 0,0 UV-I 46 W/m 7,7 km/h (2 Bft)
11.02.2014 15:48 8,2 C 6,7 C 63 % 1000,5 hPa 0,0 l/m 0 min 0 min 0,0 UV-I 42 W/m 18,0 km/h (3 Bft)
11.02.2014 15:50 8,2 C 6,7 C 63 % 1000,5 hPa 0,0 l/m 0 min 0 min 0,0 UV-I 42 W/m 15,4 km/h (3 Bft)
11.02.2014 15:52 8,2 C 6,7 C 63 % 1000,4 hPa 0,0 l/m 0 min 0 min 0,0 UV-I 42 W/m 18,0 km/h (3 Bft)
11.02.2014 15:54 8,1 C 6,7 C 63 % 1000,4 hPa 0,0 l/m 0 min 0 min 0,0 UV-I 40 W/m 10,3 km/h (2 Bft)
11.02.2014 15:56 8,1 C 6,7 C 64 % 1000,4 hPa 0,0 l/m 0 min 0 min 0,0 UV-I 40 W/m 7,7 km/h (2 Bft)
11.02.2014 15:58 8,1 C 6,7 C 64 % 1000,4 hPa 0,0 l/m 0 min 0 min 0,0 UV-I 39 W/m 10,3 km/h (2 Bft)
11.02.2014 16:00 8,1 C 6,7 C 63 % 1000,4 hPa 0,0 l/m 0 min 0 min 0,0 UV-I 33 W/m 10,3 km/h (2 Bft)
11.02.2014 16:02 8,1 C 6,7 C 63 % 1000,4 hPa 0,0 l/m 0 min 0 min 0,0 UV-I 32 W/m 15,4 km/h (3 Bft)
11.02.2014 16:04 8,1 C 6,7 C 63 % 1000,4 hPa 0,0 l/m 0 min 0 min 0,0 UV-I 30 W/m 18,0 km/h (3 Bft)
11.02.2014 16:06 8,1 C 6,7 C 63 % 1000,3 hPa 0,0 l/m 0 min 0 min 0,0 UV-I 28 W/m 15,4 km/h (3 Bft)
11.02.2014 16:08 8,1 C 6,7 C 63 % 1000,3 hPa 0,0 l/m 0 min 0 min 0,0 UV-I 32 W/m 7,7 km/h (2 Bft)
11.02.2014 16:10 8,1 C 6,7 C 63 % 1000,3 hPa 0,0 l/m 0 min 0 min 0,0 UV-I 35 W/m 20,6 km/h (4 Bft)
11.02.2014 16:12 8,1 C 6,7 C 63 % 1000,3 hPa 0,0 l/m 0 min 0 min 0,0 UV-I 39 W/m 18,0 km/h (3 Bft)
11.02.2014 16:14 8,1 C 6,7 C 63 % 1000,3 hPa 0,0 l/m 0 min 0 min 0,0 UV-I 40 W/m 15,4 km/h (3 Bft)
11.02.2014 16:16 8,1 C 6,7 C 63 % 1000,3 hPa 0,0 l/m 0 min 0 min 0,0 UV-I 40 W/m 12,9 km/h (3 Bft)
11.02.2014 16:18 8,1 C 6,7 C 63 % 1000,3 hPa 0,0 l/m 0 min 0 min 0,0 UV-I 40 W/m 10,3 km/h (2 Bft)
11.02.2014 16:20 8,1 C 6,7 C 63 % 1000,3 hPa 0,0 l/m 0 min 0 min 0,0 UV-I 39 W/m 15,4 km/h (3 Bft)
11.02.2014 16:22 8,1 C 6,7 C 63 % 1000,3 hPa 0,0 l/m 0 min 0 min 0,0 UV-I 37 W/m 12,9 km/h (3 Bft)
11.02.2014 16:24 8,1 C 6,7 C 63 % 1000,3 hPa 0,0 l/m 0 min 0 min 0,0 UV-I 37 W/m 7,7 km/h (2 Bft)
11.02.2014 16:26 8,1 C 6,7 C 63 % 1000,3 hPa 0,0 l/m 0 min 0 min 0,0 UV-I 37 W/m 12,9 km/h (3 Bft)
11.02.2014 16:28 8,1 C 6,7 C 63 % 1000,3 hPa 0,0 l/m 0 min 0 min 0,0 UV-I 37 W/m 7,7 km/h (2 Bft)
11.02.2014 16:30 8,1 C 6,7 C 63 % 1000,3 hPa 0,0 l/m 0 min 0 min 0,0 UV-I 37 W/m 7,7 km/h (2 Bft)
11.02.2014 16:32 8,1 C 6,7 C 63 % 1000,2 hPa 0,0 l/m 0 min 0 min 0,0 UV-I 37 W/m 7,7 km/h (2 Bft)
11.02.2014 16:34 8,1 C 6,7 C 63 % 1000,2 hPa 0,0 l/m 0 min 0 min 0,0 UV-I 35 W/m 10,3 km/h (2 Bft)
11.02.2014 16:36 8,1 C 6,7 C 63 % 1000,1 hPa 0,0 l/m 0 min 0 min 0,0 UV-I 33 W/m 12,9 km/h (3 Bft)
11.02.2014 16:38 8,1 C 6,7 C 64 % 1000,1 hPa 0,0 l/m 0 min 0 min 0,0 UV-I 33 W/m 10,3 km/h (2 Bft)
11.02.2014 16:40 8,1 C 6,7 C 64 % 1000,2 hPa 0,0 l/m 0 min 0 min 0,0 UV-I 32 W/m 7,7 km/h (2 Bft)
11.02.2014 16:42 8,1 C 6,7 C 63 % 1000,2 hPa 0,0 l/m 0 min 0 min 0,0 UV-I 30 W/m 23,2 km/h (4 Bft)
11.02.2014 16:44 8,1 C 6,7 C 63 % 1000,2 hPa 0,0 l/m 0 min 0 min 0,0 UV-I 28 W/m 25,7 km/h (4 Bft)
11.02.2014 16:46 8,1 C 6,7 C 62 % 1000,3 hPa 0,0 l/m 0 min 0 min 0,0 UV-I 28 W/m 15,4 km/h (3 Bft)
11.02.2014 16:48 8,1 C 6,7 C 62 % 1000,2 hPa 0,0 l/m 0 min 0 min 0,0 UV-I 25 W/m 10,3 km/h (2 Bft)
11.02.2014 16:50 8,1 C 6,7 C 62 % 1000,2 hPa 0,0 l/m 0 min 0 min 0,0 UV-I 23 W/m 10,3 km/h (2 Bft)
11.02.2014 16:52 8,1 C 6,7 C 62 % 1000,3 hPa 0,0 l/m 0 min 0 min 0,0 UV-I 23 W/m 23,2 km/h (4 Bft)
11.02.2014 16:54 8,1 C 6,7 C 62 % 1000,2 hPa 0,0 l/m 0 min 0 min 0,0 UV-I 21 W/m 10,3 km/h (2 Bft)
11.02.2014 16:56 8,1 C 6,7 C 62 % 1000,2 hPa 0,0 l/m 0 min 0 min 0,0 UV-I 21 W/m 20,6 km/h (4 Bft)
11.02.2014 16:58 8,1 C 6,7 C 61 % 1000,2 hPa 0,0 l/m 0 min 0 min 0,0 UV-I 19 W/m 18,0 km/h (3 Bft)
11.02.2014 17:00 8,1 C 6,7 C 62 % 1000,2 hPa 0,0 l/m 0 min 0 min 0,0 UV-I 19 W/m 10,3 km/h (2 Bft)
11.02.2014 17:02 8,0 C 6,1 C 62 % 1000,1 hPa 0,0 l/m 0 min 0 min 0,0 UV-I 19 W/m 23,2 km/h (4 Bft)
11.02.2014 17:04 8,0 C 6,1 C 62 % 1000,1 hPa 0,0 l/m 0 min 0 min 0,0 UV-I 19 W/m 25,7 km/h (4 Bft)
11.02.2014 17:06 8,0 C 6,1 C 62 % 1000,0 hPa 0,0 l/m 0 min 0 min 0,0 UV-I 16 W/m 18,0 km/h (3 Bft)
11.02.2014 17:08 8,0 C 6,7 C 62 % 1000,0 hPa 0,0 l/m 0 min 0 min 0,0 UV-I 14 W/m 7,7 km/h (2 Bft)
11.02.2014 17:10 7,9 C 6,1 C 62 % 1000,0 hPa 0,0 l/m 0 min 0 min 0,0 UV-I 12 W/m 12,9 km/h (3 Bft)
11.02.2014 17:12 7,9 C 6,1 C 62 % 1000,0 hPa 0,0 l/m 0 min 0 min 0,0 UV-I 11 W/m 18,0 km/h (3 Bft)
11.02.2014 17:14 7,9 C 6,1 C 62 % 999,9 hPa 0,0 l/m 0 min 0 min 0,0 UV-I 11 W/m 33,5 km/h (5 Bft)
11.02.2014 17:16 7,9 C 6,1 C 62 % 1000,0 hPa 0,0 l/m 0 min 0 min 0,0 UV-I 9 W/m 10,3 km/h (2 Bft)
11.02.2014 17:18 7,9 C 6,1 C 62 % 999,9 hPa 0,0 l/m 0 min 0 min 0,0 UV-I 7 W/m 18,0 km/h (3 Bft)
11.02.2014 17:20 7,9 C 6,1 C 62 % 1000,0 hPa 0,0 l/m 0 min 0 min 0,0 UV-I 7 W/m 18,0 km/h (3 Bft)
11.02.2014 17:22 7,9 C 6,7 C 62 % 1000,1 hPa 0,0 l/m 0 min 0 min 0,0 UV-I 7 W/m 18,0 km/h (3 Bft)
11.02.2014 17:24 7,9 C 6,1 C 62 % 1000,0 hPa 0,0 l/m 0 min 0 min 0,0 UV-I 5 W/m 15,4 km/h (3 Bft)
11.02.2014 17:26 7,9 C 6,1 C 63 % 1000,1 hPa 0,0 l/m 0 min 0 min 0,0 UV-I 5 W/m 23,2 km/h (4 Bft)
11.02.2014 17:28 7,9 C 6,1 C 65 % 1000,2 hPa 0,0 l/m 0 min 0 min 0,0 UV-I 5 W/m 15,4 km/h (3 Bft)
11.02.2014 17:30 7,9 C 6,1 C 63 % 1000,2 hPa 0,0 l/m 0 min 0 min 0,0 UV-I 0 W/m 18,0 km/h (3 Bft)
11.02.2014 17:32 7,9 C 6,1 C 63 % 1000,2 hPa 0,0 l/m 0 min 0 min 0,0 UV-I 0 W/m 20,6 km/h (4 Bft)
11.02.2014 17:34 7,9 C 6,1 C 63 % 1000,0 hPa 0,0 l/m 0 min 0 min 0,0 UV-I 0 W/m 12,9 km/h (3 Bft)
11.02.2014 17:36 7,8 C 6,1 C 63 % 1000,0 hPa 0,0 l/m 0 min 0 min 0,0 UV-I 0 W/m 18,0 km/h (3 Bft)
11.02.2014 17:38 7,8 C 6,1 C 63 % 1000,1 hPa 0,0 l/m 0 min 0 min 0,0 UV-I 0 W/m 15,4 km/h (3 Bft)
11.02.2014 17:40 7,8 C 6,1 C 64 % 1000,1 hPa 0,0 l/m 0 min 0 min 0,0 UV-I 0 W/m 10,3 km/h (2 Bft)
11.02.2014 17:42 7,8 C 6,1 C 64 % 1000,1 hPa 0,0 l/m 0 min 0 min 0,0 UV-I 0 W/m 15,4 km/h (3 Bft)
11.02.2014 17:44 7,8 C 6,1 C 64 % 1000,2 hPa 0,0 l/m 0 min 0 min 0,0 UV-I 0 W/m 20,6 km/h (4 Bft)
11.02.2014 17:46 7,7 C 6,1 C 64 % 1000,1 hPa 0,0 l/m 0 min 0 min 0,0 UV-I 0 W/m 10,3 km/h (2 Bft)
11.02.2014 17:48 7,7 C 6,1 C 65 % 1000,0 hPa 0,0 l/m 0 min 0 min 0,0 UV-I 0 W/m 10,3 km/h (2 Bft)
11.02.2014 17:50 7,7 C 6,1 C 65 % 1000,1 hPa 0,0 l/m 0 min 0 min 0,0 UV-I 0 W/m 23,2 km/h (4 Bft)
11.02.2014 17:52 7,7 C 6,1 C 65 % 1000,1 hPa 0,0 l/m 0 min 0 min 0,0 UV-I 0 W/m 18,0 km/h (3 Bft)
11.02.2014 17:54 7,7 C 6,1 C 65 % 1000,2 hPa 0,0 l/m 0 min 0 min 0,0 UV-I 0 W/m 12,9 km/h (3 Bft)
11.02.2014 17:56 7,7 C 6,1 C 65 % 1000,1 hPa 0,0 l/m 0 min 0 min 0,0 UV-I 0 W/m 12,9 km/h (3 Bft)
11.02.2014 17:58 7,7 C 6,1 C 65 % 1000,3 hPa 0,0 l/m 0 min 0 min 0,0 UV-I 0 W/m 28,3 km/h (4 Bft)
11.02.2014 18:00 7,7 C 6,1 C 65 % 1000,3 hPa 0,0 l/m 0 min 0 min 0,0 UV-I 0 W/m 25,7 km/h (4 Bft)
11.02.2014 18:02 7,7 C 6,1 C 65 % 1000,3 hPa 0,0 l/m 0 min 0 min 0,0 UV-I 0 W/m 15,4 km/h (3 Bft)
11.02.2014 18:04 7,7 C 6,1 C 65 % 1000,4 hPa 0,0 l/m 0 min 0 min 0,0 UV-I 0 W/m 15,4 km/h (3 Bft)
11.02.2014 18:06 7,7 C 6,1 C 65 % 1000,2 hPa 0,0 l/m 0 min 0 min 0,0 UV-I 0 W/m 15,4 km/h (3 Bft)
11.02.2014 18:08 7,7 C 6,1 C 66 % 1000,4 hPa 0,0 l/m 0 min 0 min 0,0 UV-I 0 W/m 20,6 km/h (4 Bft)
11.02.2014 18:10 7,7 C 6,1 C 66 % 1000,3 hPa 0,0 l/m 0 min 0 min 0,0 UV-I 0 W/m 28,3 km/h (4 Bft)
11.02.2014 18:12 7,7 C 6,1 C 66 % 1000,4 hPa 0,0 l/m 0 min 0 min 0,0 UV-I 0 W/m 10,3 km/h (2 Bft)
11.02.2014 18:14 7,7 C 6,1 C 66 % 1000,3 hPa 0,0 l/m 0 min 0 min 0,0 UV-I 0 W/m 23,2 km/h (4 Bft)
11.02.2014 18:16 7,7 C 6,1 C 66 % 1000,5 hPa 0,0 l/m 0 min 0 min 0,0 UV-I 0 W/m 41,2 km/h (6 Bft)
11.02.2014 18:18 7,7 C 6,1 C 66 % 1000,5 hPa 0,0 l/m 0 min 0 min 0,0 UV-I 0 W/m 33,5 km/h (5 Bft)
11.02.2014 18:20 7,7 C 6,1 C 66 % 1000,5 hPa 0,0 l/m 0 min 0 min 0,0 UV-I 0 W/m 5,1 km/h (1 Bft)
11.02.2014 18:22 7,7 C 6,1 C 66 % 1000,5 hPa 0,0 l/m 0 min 0 min 0,0 UV-I 0 W/m 23,2 km/h (4 Bft)
11.02.2014 18:24 7,7 C 6,1 C 66 % 1000,3 hPa 0,0 l/m 0 min 0 min 0,0 UV-I 0 W/m 25,7 km/h (4 Bft)
11.02.2014 18:26 7,7 C 6,1 C 66 % 1000,3 hPa 0,0 l/m 0 min 0 min 0,0 UV-I 0 W/m 25,7 km/h (4 Bft)
11.02.2014 18:28 7,7 C 6,1 C 67 % 1000,3 hPa 0,0 l/m 0 min 0 min 0,0 UV-I 0 W/m 23,2 km/h (4 Bft)
11.02.2014 18:30 7,7 C 6,1 C 67 % 1000,4 hPa 0,0 l/m 0 min 0 min 0,0 UV-I 0 W/m 28,3 km/h (4 Bft)
11.02.2014 18:32 7,6 C 6,1 C 67 % 1000,4 hPa 0,0 l/m 0 min 0 min 0,0 UV-I 0 W/m 18,0 km/h (3 Bft)
11.02.2014 18:34 7,6 C 6,1 C 67 % 1000,3 hPa 0,0 l/m 0 min 0 min 0,0 UV-I 0 W/m 12,9 km/h (3 Bft)
11.02.2014 18:36 7,6 C 6,1 C 67 % 1000,3 hPa 0,0 l/m 0 min 0 min 0,0 UV-I 0 W/m 20,6 km/h (4 Bft)
11.02.2014 18:38 7,6 C 6,1 C 67 % 1000,5 hPa 0,0 l/m 0 min 0 min 0,0 UV-I 0 W/m 25,7 km/h (4 Bft)
11.02.2014 18:40 7,6 C 6,1 C 67 % 1000,4 hPa 0,0 l/m 0 min 0 min 0,0 UV-I 0 W/m 10,3 km/h (2 Bft)
11.02.2014 18:42 7,6 C 6,1 C 67 % 1000,3 hPa 0,0 l/m 0 min 0 min 0,0 UV-I 0 W/m 0,0 km/h (0 Bft)
11.02.2014 18:44 7,6 C 6,1 C 67 % 1000,5 hPa 0,0 l/m 0 min 0 min 0,0 UV-I 0 W/m 25,7 km/h (4 Bft)
11.02.2014 18:46 7,6 C 6,1 C 67 % 1000,2 hPa 0,0 l/m 0 min 0 min 0,0 UV-I 0 W/m 15,4 km/h (3 Bft)
11.02.2014 18:48 7,6 C 6,1 C 68 % 1000,4 hPa 0,0 l/m 0 min 0 min 0,0 UV-I 0 W/m 20,6 km/h (4 Bft)
11.02.2014 18:50 7,6 C 6,1 C 67 % 1000,4 hPa 0,0 l/m 0 min 0 min 0,0 UV-I 0 W/m 33,5 km/h (5 Bft)
11.02.2014 18:52 7,6 C 6,1 C 67 % 1000,3 hPa 0,0 l/m 0 min 0 min 0,0 UV-I 0 W/m 12,9 km/h (3 Bft)
11.02.2014 18:54 7,6 C 6,1 C 67 % 1000,4 hPa 0,0 l/m 0 min 0 min 0,0 UV-I 0 W/m 2,6 km/h (1 Bft)
11.02.2014 18:56 7,6 C 6,1 C 68 % 1000,4 hPa 0,0 l/m 0 min 0 min 0,0 UV-I 0 W/m 20,6 km/h (4 Bft)
11.02.2014 18:58 7,6 C 6,1 C 67 % 1000,4 hPa 0,0 l/m 0 min 0 min 0,0 UV-I 0 W/m 15,4 km/h (3 Bft)
11.02.2014 19:00 7,6 C 6,1 C 67 % 1000,5 hPa 0,0 l/m 0 min 0 min 0,0 UV-I 0 W/m 25,7 km/h (4 Bft)
11.02.2014 19:02 7,6 C 6,1 C 67 % 1000,4 hPa 0,0 l/m 0 min 0 min 0,0 UV-I 0 W/m 23,2 km/h (4 Bft)
11.02.2014 19:04 7,7 C 6,1 C 67 % 1000,3 hPa 0,0 l/m 0 min 0 min 0,0 UV-I 0 W/m 20,6 km/h (4 Bft)
11.02.2014 19:06 7,6 C 6,1 C 67 % 1000,4 hPa 0,0 l/m 0 min 0 min 0,0 UV-I 0 W/m 12,9 km/h (3 Bft)
11.02.2014 19:08 7,6 C 6,1 C 67 % 1000,5 hPa 0,0 l/m 0 min 0 min 0,0 UV-I 0 W/m 7,7 km/h (2 Bft)
11.02.2014 19:10 7,6 C 6,1 C 67 % 1000,4 hPa 0,0 l/m 0 min 0 min 0,0 UV-I 0 W/m 15,4 km/h (3 Bft)
11.02.2014 19:12 7,6 C 6,1 C 67 % 1000,5 hPa 0,0 l/m 0 min 0 min 0,0 UV-I 0 W/m 15,4 km/h (3 Bft)
11.02.2014 19:14 7,6 C 6,1 C 68 % 1000,6 hPa 0,0 l/m 0 min 0 min 0,0 UV-I 0 W/m 18,0 km/h (3 Bft)
11.02.2014 19:16 7,6 C 6,1 C 68 % 1000,5 hPa 0,0 l/m 0 min 0 min 0,0 UV-I 0 W/m 18,0 km/h (3 Bft)
11.02.2014 19:18 7,6 C 6,1 C 68 % 1000,6 hPa 0,0 l/m 0 min 0 min 0,0 UV-I 0 W/m 12,9 km/h (3 Bft)
11.02.2014 19:20 7,6 C 6,1 C 68 % 1000,6 hPa 0,0 l/m 0 min 0 min 0,0 UV-I 0 W/m 20,6 km/h (4 Bft)
11.02.2014 19:22 7,6 C 5,6 C 69 % 1000,6 hPa 0,0 l/m 0 min 0 min 0,0 UV-I 0 W/m 25,7 km/h (4 Bft)
11.02.2014 19:24 7,5 C 5,6 C 70 % 1000,7 hPa 0,0 l/m 0 min 2 min 0,0 UV-I 0 W/m 23,2 km/h (4 Bft)
11.02.2014 19:26 7,4 C 5,6 C 70 % 1000,7 hPa 0,0 l/m 0 min 2 min 0,0 UV-I 0 W/m 10,3 km/h (2 Bft)
11.02.2014 19:28 7,4 C 5,0 C 71 % 1000,7 hPa 0,0 l/m 0 min 2 min 0,0 UV-I 0 W/m 25,7 km/h (4 Bft)
11.02.2014 19:30 7,3 C 5,0 C 72 % 1000,7 hPa 0,0 l/m 0 min 2 min 0,0 UV-I 0 W/m 25,7 km/h (4 Bft)
11.02.2014 19:32 7,3 C 5,0 C 72 % 1000,7 hPa 0,0 l/m 0 min 2 min 0,0 UV-I 0 W/m 25,7 km/h (4 Bft)
11.02.2014 19:34 7,2 C 4,4 C 74 % 1000,7 hPa 0,0 l/m 0 min 2 min 0,0 UV-I 0 W/m 25,7 km/h (4 Bft)
11.02.2014 19:36 7,1 C 4,4 C 74 % 1000,7 hPa 0,0 l/m 0 min 2 min 0,0 UV-I 0 W/m 28,3 km/h (4 Bft)
11.02.2014 19:38 7,0 C 4,4 C 75 % 1000,8 hPa 0,0 l/m 0 min 2 min 0,0 UV-I 0 W/m 41,2 km/h (6 Bft)
11.02.2014 19:40 6,9 C 4,4 C 76 % 1000,8 hPa 0,0 l/m 0 min 2 min 0,0 UV-I 0 W/m 10,3 km/h (2 Bft)
11.02.2014 19:42 6,8 C 4,4 C 77 % 1000,8 hPa 0,0 l/m 0 min 2 min 0,0 UV-I 0 W/m 28,3 km/h (4 Bft)
11.02.2014 19:44 6,7 C 4,4 C 78 % 1000,8 hPa 0,0 l/m 0 min 2 min 0,0 UV-I 0 W/m 20,6 km/h (4 Bft)
11.02.2014 19:46 6,7 C 3,9 C 78 % 1000,8 hPa 0,0 l/m 0 min 2 min 0,0 UV-I 0 W/m 25,7 km/h (4 Bft)
11.02.2014 19:48 6,6 C 3,9 C 79 % 1000,8 hPa 0,2 l/m 0 min 2 min 0,0 UV-I 0 W/m 20,6 km/h (4 Bft)
11.02.2014 19:50 6,5 C 3,9 C 79 % 1000,7 hPa 0,0 l/m 0 min 2 min 0,0 UV-I 0 W/m 23,2 km/h (4 Bft)
11.02.2014 19:52 6,4 C 3,9 C 80 % 1000,8 hPa 0,0 l/m 0 min 2 min 0,0 UV-I 0 W/m 36,0 km/h (5 Bft)
11.02.2014 19:54 6,4 C 3,9 C 80 % 1000,8 hPa 0,0 l/m 0 min 2 min 0,0 UV-I 0 W/m 12,9 km/h (3 Bft)
11.02.2014 19:56 6,4 C 3,9 C 81 % 1000,8 hPa 0,0 l/m 0 min 2 min 0,0 UV-I 0 W/m 7,7 km/h (2 Bft)
11.02.2014 19:58 6,3 C 3,9 C 81 % 1000,8 hPa 0,0 l/m 0 min 2 min 0,0 UV-I 0 W/m 12,9 km/h (3 Bft)
11.02.2014 20:00 6,2 C 3,9 C 82 % 1000,8 hPa 0,0 l/m 0 min 2 min 0,0 UV-I 0 W/m 18,0 km/h (3 Bft)
11.02.2014 20:02 6,2 C 3,3 C 82 % 1000,7 hPa 0,0 l/m 0 min 2 min 0,0 UV-I 0 W/m 15,4 km/h (3 Bft)
11.02.2014 20:04 6,1 C 3,3 C 83 % 1000,7 hPa 0,0 l/m 0 min 2 min 0,0 UV-I 0 W/m 10,3 km/h (2 Bft)
11.02.2014 20:06 6,0 C 3,3 C 83 % 1000,7 hPa 0,0 l/m 0 min 2 min 0,0 UV-I 0 W/m 18,0 km/h (3 Bft)
11.02.2014 20:08 5,9 C 3,3 C 84 % 1000,7 hPa 0,2 l/m 0 min 2 min 0,0 UV-I 0 W/m 15,4 km/h (3 Bft)
11.02.2014 20:10 5,9 C 3,3 C 84 % 1000,7 hPa 0,0 l/m 0 min 2 min 0,0 UV-I 0 W/m 25,7 km/h (4 Bft)
11.02.2014 20:12 5,9 C 3,3 C 84 % 1000,7 hPa 0,0 l/m 0 min 2 min 0,0 UV-I 0 W/m 12,9 km/h (3 Bft)
11.02.2014 20:14 5,9 C 3,3 C 84 % 1000,8 hPa 0,0 l/m 0 min 2 min 0,0 UV-I 0 W/m 20,6 km/h (4 Bft)
11.02.2014 20:16 5,9 C 3,3 C 84 % 1000,7 hPa 0,0 l/m 0 min 2 min 0,0 UV-I 0 W/m 25,7 km/h (4 Bft)
11.02.2014 20:18 5,9 C 3,3 C 85 % 1000,8 hPa 0,0 l/m 0 min 2 min 0,0 UV-I 0 W/m 28,3 km/h (4 Bft)
11.02.2014 20:20 5,9 C 3,3 C 85 % 1000,8 hPa 0,0 l/m 0 min 2 min 0,0 UV-I 0 W/m 10,3 km/h (2 Bft)
11.02.2014 20:22 5,9 C 3,3 C 85 % 1000,8 hPa 0,0 l/m 0 min 2 min 0,0 UV-I 0 W/m 15,4 km/h (3 Bft)
11.02.2014 20:24 5,8 C 3,3 C 85 % 1000,9 hPa 0,0 l/m 0 min 2 min 0,0 UV-I 0 W/m 18,0 km/h (3 Bft)
11.02.2014 20:26 5,8 C 3,3 C 85 % 1000,8 hPa 0,0 l/m 0 min 2 min 0,0 UV-I 0 W/m 12,9 km/h (3 Bft)
11.02.2014 20:28 5,8 C 3,3 C 85 % 1000,8 hPa 0,0 l/m 0 min 2 min 0,0 UV-I 0 W/m 12,9 km/h (3 Bft)
11.02.2014 20:30 5,8 C 3,3 C 86 % 1000,8 hPa 0,0 l/m 0 min 2 min 0,0 UV-I 0 W/m 12,9 km/h (3 Bft)
11.02.2014 20:32 5,7 C 3,3 C 86 % 1000,8 hPa 0,0 l/m 0 min 2 min 0,0 UV-I 0 W/m 18,0 km/h (3 Bft)
11.02.2014 20:34 5,7 C 3,3 C 86 % 1000,8 hPa 0,0 l/m 0 min 2 min 0,0 UV-I 0 W/m 10,3 km/h (2 Bft)
11.02.2014 20:36 5,7 C 3,3 C 87 % 1000,7 hPa 0,0 l/m 0 min 2 min 0,0 UV-I 0 W/m 15,4 km/h (3 Bft)
11.02.2014 20:38 5,6 C 3,3 C 87 % 1000,8 hPa 0,2 l/m 0 min 2 min 0,0 UV-I 0 W/m 10,3 km/h (2 Bft)
11.02.2014 20:40 5,6 C 3,3 C 87 % 1000,8 hPa 0,0 l/m 0 min 2 min 0,0 UV-I 0 W/m 18,0 km/h (3 Bft)
11.02.2014 20:42 5,6 C 3,3 C 87 % 1000,7 hPa 0,0 l/m 0 min 2 min 0,0 UV-I 0 W/m 18,0 km/h (3 Bft)
11.02.2014 20:44 5,6 C 3,3 C 87 % 1000,7 hPa 0,0 l/m 0 min 2 min 0,0 UV-I 0 W/m 12,9 km/h (3 Bft)
11.02.2014 20:46 5,6 C 3,3 C 88 % 1000,8 hPa 0,0 l/m 0 min 2 min 0,0 UV-I 0 W/m 18,0 km/h (3 Bft)
11.02.2014 20:48 5,6 C 3,3 C 88 % 1000,8 hPa 0,0 l/m 0 min 2 min 0,0 UV-I 0 W/m 12,9 km/h (3 Bft)
11.02.2014 20:50 5,6 C 3,3 C 88 % 1000,7 hPa 0,0 l/m 0 min 2 min 0,0 UV-I 0 W/m 10,3 km/h (2 Bft)
11.02.2014 20:52 5,5 C 3,3 C 88 % 1000,7 hPa 0,0 l/m 0 min 2 min 0,0 UV-I 0 W/m 15,4 km/h (3 Bft)
11.02.2014 20:54 5,5 C 3,3 C 88 % 1000,8 hPa 0,0 l/m 0 min 2 min 0,0 UV-I 0 W/m 10,3 km/h (2 Bft)
11.02.2014 20:56 5,5 C 3,3 C 88 % 1000,8 hPa 0,0 l/m 0 min 2 min 0,0 UV-I 0 W/m 10,3 km/h (2 Bft)
11.02.2014 20:58 5,5 C 3,3 C 88 % 1000,7 hPa 0,0 l/m 0 min 2 min 0,0 UV-I 0 W/m 2,6 km/h (1 Bft)
11.02.2014 21:00 5,5 C 3,3 C 88 % 1000,8 hPa 0,0 l/m 0 min 2 min 0,0 UV-I 0 W/m 7,7 km/h (2 Bft)
11.02.2014 21:02 5,5 C 3,3 C 89 % 1000,8 hPa 0,0 l/m 0 min 2 min 0,0 UV-I 0 W/m 5,1 km/h (1 Bft)
11.02.2014 21:04 5,5 C 3,3 C 89 % 1000,8 hPa 0,0 l/m 0 min 2 min 0,0 UV-I 0 W/m 10,3 km/h (2 Bft)
11.02.2014 21:06 5,5 C 3,3 C 89 % 1000,9 hPa 0,0 l/m 0 min 2 min 0,0 UV-I 0 W/m 10,3 km/h (2 Bft)
11.02.2014 21:08 5,5 C 3,3 C 89 % 1000,8 hPa 0,0 l/m 0 min 2 min 0,0 UV-I 0 W/m 7,7 km/h (2 Bft)
11.02.2014 21:10 5,5 C 3,3 C 89 % 1000,8 hPa 0,0 l/m 0 min 2 min 0,0 UV-I 0 W/m 2,6 km/h (1 Bft)
11.02.2014 21:12 5,5 C 3,3 C 89 % 1000,8 hPa 0,0 l/m 0 min 2 min 0,0 UV-I 0 W/m 10,3 km/h (2 Bft)
11.02.2014 21:14 5,5 C 3,3 C 89 % 1000,9 hPa 0,0 l/m 0 min 2 min 0,0 UV-I 0 W/m 7,7 km/h (2 Bft)
11.02.2014 21:16 5,4 C 3,3 C 89 % 1000,9 hPa 0,0 l/m 0 min 2 min 0,0 UV-I 0 W/m 7,7 km/h (2 Bft)
11.02.2014 21:18 5,5 C 3,3 C 89 % 1000,9 hPa 0,0 l/m 0 min 2 min 0,0 UV-I 0 W/m 10,3 km/h (2 Bft)
11.02.2014 21:20 5,5 C 3,3 C 89 % 1000,9 hPa 0,0 l/m 0 min 2 min 0,0 UV-I 0 W/m 5,1 km/h (1 Bft)
11.02.2014 21:22 5,5 C 3,3 C 89 % 1000,9 hPa 0,0 l/m 0 min 2 min 0,0 UV-I 0 W/m 5,1 km/h (1 Bft)
11.02.2014 21:24 5,5 C 3,3 C 89 % 1000,9 hPa 0,2 l/m 0 min 2 min 0,0 UV-I 0 W/m 10,3 km/h (2 Bft)
11.02.2014 21:26 5,5 C 3,3 C 89 % 1000,9 hPa 0,0 l/m 0 min 2 min 0,0 UV-I 0 W/m 7,7 km/h (2 Bft)
11.02.2014 21:28 5,5 C 3,3 C 89 % 1001,0 hPa 0,0 l/m 0 min 2 min 0,0 UV-I 0 W/m 15,4 km/h (3 Bft)
11.02.2014 21:30 5,5 C 3,3 C 89 % 1001,0 hPa 0,0 l/m 0 min 2 min 0,0 UV-I 0 W/m 7,7 km/h (2 Bft)
11.02.2014 21:32 5,5 C 3,3 C 89 % 1001,0 hPa 0,0 l/m 0 min 2 min 0,0 UV-I 0 W/m 0,0 km/h (0 Bft)
11.02.2014 21:34 5,5 C 3,3 C 89 % 1001,0 hPa 0,0 l/m 0 min 2 min 0,0 UV-I 0 W/m 15,4 km/h (3 Bft)
11.02.2014 21:36 5,5 C 3,3 C 89 % 1001,1 hPa 0,0 l/m 0 min 2 min 0,0 UV-I 0 W/m 10,3 km/h (2 Bft)
11.02.2014 21:38 5,5 C 3,3 C 89 % 1001,1 hPa 0,0 l/m 0 min 0 min 0,0 UV-I 0 W/m 2,6 km/h (1 Bft)
11.02.2014 21:40 5,5 C 3,3 C 89 % 1001,1 hPa 0,0 l/m 0 min 0 min 0,0 UV-I 0 W/m 12,9 km/h (3 Bft)
11.02.2014 21:42 5,6 C 3,3 C 89 % 1001,1 hPa 0,0 l/m 0 min 0 min 0,0 UV-I 0 W/m 12,9 km/h (3 Bft)
11.02.2014 21:44 5,6 C 3,3 C 89 % 1001,1 hPa 0,0 l/m 0 min 0 min 0,0 UV-I 0 W/m 12,9 km/h (3 Bft)
11.02.2014 21:46 5,6 C 3,3 C 89 % 1001,2 hPa 0,0 l/m 0 min 0 min 0,0 UV-I 0 W/m 7,7 km/h (2 Bft)
11.02.2014 21:48 5,6 C 3,3 C 89 % 1001,2 hPa 0,0 l/m 0 min 0 min 0,0 UV-I 0 W/m 7,7 km/h (2 Bft)
11.02.2014 21:50 5,6 C 3,3 C 89 % 1001,2 hPa 0,0 l/m 0 min 0 min 0,0 UV-I 0 W/m 15,4 km/h (3 Bft)
11.02.2014 21:52 5,7 C 3,9 C 89 % 1001,2 hPa 0,0 l/m 0 min 0 min 0,0 UV-I 0 W/m 10,3 km/h (2 Bft)
11.02.2014 21:54 5,7 C 3,9 C 89 % 1001,3 hPa 0,0 l/m 0 min 0 min 0,0 UV-I 0 W/m 12,9 km/h (3 Bft)
11.02.2014 21:56 5,7 C 3,9 C 89 % 1001,3 hPa 0,0 l/m 0 min 0 min 0,0 UV-I 0 W/m 5,1 km/h (1 Bft)
11.02.2014 21:58 5,7 C 3,9 C 89 % 1001,3 hPa 0,0 l/m 0 min 0 min 0,0 UV-I 0 W/m 5,1 km/h (1 Bft)
11.02.2014 22:00 5,7 C 3,9 C 89 % 1001,4 hPa 0,0 l/m 0 min 2 min 0,0 UV-I 0 W/m 15,4 km/h (3 Bft)
11.02.2014 22:02 5,7 C 3,9 C 89 % 1001,3 hPa 0,0 l/m 0 min 0 min 0,0 UV-I 0 W/m 5,1 km/h (1 Bft)
11.02.2014 22:04 5,7 C 3,9 C 89 % 1001,3 hPa 0,0 l/m 0 min 0 min 0,0 UV-I 0 W/m 7,7 km/h (2 Bft)
11.02.2014 22:06 5,7 C 3,9 C 89 % 1001,3 hPa 0,0 l/m 0 min 0 min 0,0 UV-I 0 W/m 10,3 km/h (2 Bft)
11.02.2014 22:08 5,7 C 3,9 C 89 % 1001,4 hPa 0,0 l/m 0 min 0 min 0,0 UV-I 0 W/m 15,4 km/h (3 Bft)
11.02.2014 22:10 5,7 C 3,9 C 89 % 1001,6 hPa 0,0 l/m 0 min 0 min 0,0 UV-I 0 W/m 20,6 km/h (4 Bft)
11.02.2014 22:12 5,7 C 3,9 C 88 % 1001,5 hPa 0,0 l/m 0 min 2 min 0,0 UV-I 0 W/m 20,6 km/h (4 Bft)
11.02.2014 22:14 5,7 C 3,9 C 88 % 1001,5 hPa 0,0 l/m 0 min 0 min 0,0 UV-I 0 W/m 20,6 km/h (4 Bft)
11.02.2014 22:16 5,7 C 3,9 C 88 % 1001,5 hPa 0,0 l/m 0 min 2 min 0,0 UV-I 0 W/m 12,9 km/h (3 Bft)
11.02.2014 22:18 5,7 C 3,9 C 88 % 1001,6 hPa 0,0 l/m 0 min 2 min 0,0 UV-I 0 W/m 23,2 km/h (4 Bft)
11.02.2014 22:20 5,7 C 3,9 C 88 % 1001,5 hPa 0,0 l/m 0 min 0 min 0,0 UV-I 0 W/m 20,6 km/h (4 Bft)
11.02.2014 22:22 5,7 C 3,9 C 88 % 1001,6 hPa 0,0 l/m 0 min 2 min 0,0 UV-I 0 W/m 12,9 km/h (3 Bft)
11.02.2014 22:24 5,7 C 3,9 C 88 % 1001,5 hPa 0,0 l/m 0 min 2 min 0,0 UV-I 0 W/m 20,6 km/h (4 Bft)
11.02.2014 22:26 5,6 C 3,9 C 88 % 1001,6 hPa 0,0 l/m 0 min 2 min 0,0 UV-I 0 W/m 20,6 km/h (4 Bft)
11.02.2014 22:28 5,6 C 3,3 C 88 % 1001,6 hPa 0,0 l/m 0 min 2 min 0,0 UV-I 0 W/m 15,4 km/h (3 Bft)
11.02.2014 22:30 5,6 C 3,3 C 88 % 1001,6 hPa 0,0 l/m 0 min 2 min 0,0 UV-I 0 W/m 10,3 km/h (2 Bft)
11.02.2014 22:32 5,5 C 3,3 C 88 % 1001,6 hPa 0,0 l/m 0 min 2 min 0,0 UV-I 0 W/m 18,0 km/h (3 Bft)
11.02.2014 22:34 5,5 C 3,3 C 88 % 1001,6 hPa 0,0 l/m 0 min 2 min 0,0 UV-I 0 W/m 7,7 km/h (2 Bft)
11.02.2014 22:36 5,4 C 3,3 C 89 % 1001,6 hPa 0,0 l/m 0 min 2 min 0,0 UV-I 0 W/m 7,7 km/h (2 Bft)
11.02.2014 22:38 5,4 C 3,3 C 89 % 1001,6 hPa 0,0 l/m 0 min 2 min 0,0 UV-I 0 W/m 18,0 km/h (3 Bft)
11.02.2014 22:40 5,4 C 3,3 C 89 % 1001,6 hPa 0,0 l/m 0 min 2 min 0,0 UV-I 0 W/m 12,9 km/h (3 Bft)
11.02.2014 22:42 5,3 C 3,3 C 89 % 1001,6 hPa 0,0 l/m 0 min 2 min 0,0 UV-I 0 W/m 23,2 km/h (4 Bft)
11.02.2014 22:44 5,3 C 3,3 C 90 % 1001,5 hPa 0,0 l/m 0 min 2 min 0,0 UV-I 0 W/m 18,0 km/h (3 Bft)
11.02.2014 22:46 5,3 C 3,3 C 90 % 1001,6 hPa 0,0 l/m 0 min 2 min 0,0 UV-I 0 W/m 15,4 km/h (3 Bft)
11.02.2014 22:48 5,2 C 3,3 C 90 % 1001,7 hPa 0,0 l/m 0 min 2 min 0,0 UV-I 0 W/m 15,4 km/h (3 Bft)
11.02.2014 22:50 5,2 C 3,3 C 90 % 1001,6 hPa 0,0 l/m 0 min 2 min 0,0 UV-I 0 W/m 15,4 km/h (3 Bft)
11.02.2014 22:52 5,2 C 3,3 C 90 % 1001,7 hPa 0,0 l/m 0 min 2 min 0,0 UV-I 0 W/m 7,7 km/h (2 Bft)
11.02.2014 22:54 5,2 C 3,3 C 91 % 1001,7 hPa 0,0 l/m 0 min 2 min 0,0 UV-I 0 W/m 46,3 km/h (6 Bft)
11.02.2014 22:56 5,1 C 3,3 C 91 % 1001,7 hPa 0,0 l/m 0 min 2 min 0,0 UV-I 0 W/m 25,7 km/h (4 Bft)
11.02.2014 22:58 5,1 C 3,3 C 91 % 1001,7 hPa 0,0 l/m 0 min 2 min 0,0 UV-I 0 W/m 28,3 km/h (4 Bft)
11.02.2014 23:00 5,1 C 3,3 C 91 % 1001,7 hPa 0,0 l/m 0 min 2 min 0,0 UV-I 0 W/m 20,6 km/h (4 Bft)
11.02.2014 23:02 5,1 C 3,3 C 91 % 1001,7 hPa 0,0 l/m 0 min 2 min 0,0 UV-I 0 W/m 12,9 km/h (3 Bft)
11.02.2014 23:04 5,1 C 3,3 C 91 % 1001,7 hPa 0,0 l/m 0 min 2 min 0,0 UV-I 0 W/m 33,5 km/h (5 Bft)
11.02.2014 23:06 5,1 C 3,3 C 91 % 1001,7 hPa 0,0 l/m 0 min 2 min 0,0 UV-I 0 W/m 10,3 km/h (2 Bft)
11.02.2014 23:08 5,1 C 3,3 C 91 % 1001,8 hPa 0,0 l/m 0 min 2 min 0,0 UV-I 0 W/m 18,0 km/h (3 Bft)
11.02.2014 23:10 5,1 C 3,3 C 91 % 1001,8 hPa 0,0 l/m 0 min 2 min 0,0 UV-I 0 W/m 25,7 km/h (4 Bft)
11.02.2014 23:12 5,0 C 3,3 C 91 % 1001,9 hPa 0,0 l/m 0 min 0 min 0,0 UV-I 0 W/m 25,7 km/h (4 Bft)
11.02.2014 23:14 5,0 C 3,3 C 91 % 1002,1 hPa 0,0 l/m 0 min 0 min 0,0 UV-I 0 W/m 10,3 km/h (2 Bft)
11.02.2014 23:16 5,0 C 3,3 C 91 % 1002,0 hPa 0,0 l/m 0 min 0 min 0,0 UV-I 0 W/m 7,7 km/h (2 Bft)
11.02.2014 23:18 5,0 C 3,3 C 91 % 1002,0 hPa 0,0 l/m 0 min 2 min 0,0 UV-I 0 W/m 15,4 km/h (3 Bft)
11.02.2014 23:20 5,0 C 3,3 C 91 % 1002,0 hPa 0,0 l/m 0 min 0 min 0,0 UV-I 0 W/m 15,4 km/h (3 Bft)
11.02.2014 23:22 5,0 C 3,3 C 91 % 1002,1 hPa 0,0 l/m 0 min 0 min 0,0 UV-I 0 W/m 7,7 km/h (2 Bft)
11.02.2014 23:24 5,0 C 3,3 C 91 % 1002,2 hPa 0,0 l/m 0 min 2 min 0,0 UV-I 0 W/m 7,7 km/h (2 Bft)
11.02.2014 23:26 5,0 C 3,3 C 91 % 1002,2 hPa 0,0 l/m 0 min 2 min 0,0 UV-I 0 W/m 15,4 km/h (3 Bft)
11.02.2014 23:28 4,9 C 3,3 C 91 % 1002,3 hPa 0,0 l/m 0 min 2 min 0,0 UV-I 0 W/m 15,4 km/h (3 Bft)
11.02.2014 23:30 4,9 C 3,3 C 91 % 1002,2 hPa 0,0 l/m 0 min 2 min 0,0 UV-I 0 W/m 18,0 km/h (3 Bft)
11.02.2014 23:32 4,9 C 3,3 C 92 % 1002,2 hPa 0,0 l/m 0 min 2 min 0,0 UV-I 0 W/m 12,9 km/h (3 Bft)
11.02.2014 23:34 4,9 C 3,3 C 92 % 1002,2 hPa 0,0 l/m 0 min 2 min 0,0 UV-I 0 W/m 23,2 km/h (4 Bft)
11.02.2014 23:36 4,9 C 3,3 C 92 % 1002,3 hPa 0,0 l/m 0 min 2 min 0,0 UV-I 0 W/m 15,4 km/h (3 Bft)
11.02.2014 23:38 4,9 C 3,3 C 92 % 1002,3 hPa 0,0 l/m 0 min 2 min 0,0 UV-I 0 W/m 20,6 km/h (4 Bft)
11.02.2014 23:40 4,9 C 3,3 C 92 % 1002,3 hPa 0,0 l/m 0 min 2 min 0,0 UV-I 0 W/m 18,0 km/h (3 Bft)
11.02.2014 23:42 4,8 C 3,3 C 92 % 1002,3 hPa 0,0 l/m 0 min 2 min 0,0 UV-I 0 W/m 23,2 km/h (4 Bft)
11.02.2014 23:44 4,8 C 3,3 C 92 % 1002,3 hPa 0,0 l/m 0 min 2 min 0,0 UV-I 0 W/m 10,3 km/h (2 Bft)
11.02.2014 23:46 4,8 C 3,3 C 92 % 1002,3 hPa 0,0 l/m 0 min 2 min 0,0 UV-I 0 W/m 10,3 km/h (2 Bft)
11.02.2014 23:48 4,8 C 3,3 C 92 % 1002,3 hPa 0,0 l/m 0 min 2 min 0,0 UV-I 0 W/m 10,3 km/h (2 Bft)
11.02.2014 23:50 4,8 C 3,3 C 92 % 1002,3 hPa 0,0 l/m 0 min 2 min 0,0 UV-I 0 W/m 15,4 km/h (3 Bft)
11.02.2014 23:52 4,8 C 3,3 C 92 % 1002,4 hPa 0,0 l/m 0 min 0 min 0,0 UV-I 0 W/m 7,7 km/h (2 Bft)
11.02.2014 23:54 4,8 C 3,3 C 92 % 1002,4 hPa 0,0 l/m 0 min 2 min 0,0 UV-I 0 W/m 15,4 km/h (3 Bft)
11.02.2014 23:56 4,8 C 3,3 C 92 % 1002,4 hPa 0,0 l/m 0 min 2 min 0,0 UV-I 0 W/m 12,9 km/h (3 Bft)
11.02.2014 23:58 4,8 C 3,3 C 92 % 1002,4 hPa 0,0 l/m 0 min 2 min 0,0 UV-I 0 W/m 28,3 km/h (4 Bft)
_ Min-Zeit 00:02 00:00 13:44 00:00 - - - - - 00:00
Minimum _ 3,4 C 1,7 C 59 % 997,2 hPa - - - - - 0,0 km/h (0 Bft)
_ Max-Zeit 14:26 14:26 01:20 10:44 19:48 09:32 00:42 00:00 12:34 22:54
Maximum _ 9,7 C 8,9 C 96 % 1002,7 hPa 0,2 l/m 2 min 2 min 0,0 UV-I 515 W/m 46,3 km/h
W (6 Bft)
Durchschnitt _ 6,1 C 4,6 C 82 % 1000,6 hPa #0,8 l/m #4:00 h #3:58 h 0,0 UV-I 181 W/m 14,8 km/h (3 Bft)
© 2014 W. Hausmann